GFSFLT1_700_spd_000.txt.gz
Wind_Speed
12 12 12 10 11 13 17 18 17 21 25 24 29 28 32 33 32 34 33 28 27 28 29 29 29 28 28 29 30 30 30 30
15 13 10 4 6 14 19 19 22 26 30 27 28 29 31 30 28 32 31 28 27 28 29 31 33 34 31 30 29 30 30 30
9 9 8 10 10 9 15 16 21 27 29 31 29 30 30 30 30 33 33 32 33 34 35 36 37 39 38 37 39 39 39 37
6 10 13 15 15 11 14 18 24 26 28 28 30 34 37 36 37 39 43 37 35 39 42 43 43 43 43 41 43 45 43 43
11 14 18 18 18 20 22 24 26 29 32 32 34 37 40 41 44 46 42 37 38 41 46 47 45 45 46 43 44 49 45 48
18 19 19 20 20 22 25 25 27 32 32 34 36 40 45 51 46 43 44 44 45 46 48 49 50 49 49 46 48 47 49 49
17 18 22 24 22 25 27 27 31 33 34 36 39 46 47 46 47 47 47 48 49 49 50 52 54 55 53 49 52 52 54 54
20 23 27 21 26 27 28 30 33 35 35 41 45 43 44 45 48 48 47 47 49 50 50 51 52 51 49 45 47 54 58 56
21 26 23 25 26 29 31 34 36 38 43 40 42 45 48 47 45 49 51 51 51 49 49 46 42 36 31 33 41 57 60 66
20 18 24 27 29 31 32 38 43 44 44 47 48 48 44 47 51 53 54 51 49 44 36 32 27 27 29 33 41 43 57 45
20 24 26 29 33 39 47 49 53 53 50 47 43 46 52 55 57 58 55 51 46 35 30 30 28 28 28 31 37 42 41 41
29 31 33 38 46 50 54 52 49 44 42 43 47 52 56 57 56 56 53 47 39 30 30 32 35 30 31 33 35 36 36 36
33 36 42 46 49 52 50 47 43 41 42 47 51 56 56 58 55 51 46 38 31 32 35 36 35 31 31 33 34 33 35 38
39 43 47 47 45 46 44 42 41 41 45 51 52 57 56 55 51 43 35 31 32 36 35 36 34 33 33 33 34 34 36 39
46 46 43 45 45 42 43 40 39 46 50 53 57 58 56 49 42 33 30 32 32 32 32 34 34 34 34 33 33 36 38 39
45 47 48 47 48 52 48 41 44 48 52 55 57 55 47 39 32 31 28 28 30 30 31 30 35 35 37 39 40 41 40 39
50 48 54 50 47 41 39 45 49 53 54 54 51 45 38 35 34 31 32 32 28 30 35 36 37 38 39 41 42 42 41 41
44 52 48 38 40 42 43 46 52 54 53 48 40 39 34 34 31 31 34 36 36 36 37 37 38 39 40 41 41 42 42 41
51 49 38 35 41 45 47 49 51 50 44 40 38 33 31 34 38 37 35 34 35 36 37 37 36 36 38 39 41 42 41 39

GFSFLT1_700_spd_003.txt.gz
Wind_Speed
12 11 10 10 11 12 15 18 19 22 25 26 27 26 24 25 25 25 30 31 31 30 29 29 30 32 32 32 33 33 33 33
12 13 14 12 10 9 15 17 18 20 23 28 27 27 24 25 26 28 32 35 36 36 33 32 32 36 36 38 39 39 39 36
6 6 5 8 6 6 12 16 18 21 24 26 29 30 29 30 31 33 37 39 39 39 39 39 40 42 42 42 42 45 44 41
4 7 7 9 11 8 11 15 17 21 25 28 29 30 32 34 35 39 39 37 37 39 39 42 44 47 49 48 47 46 48 47
7 9 13 11 12 12 13 15 20 24 28 30 33 34 36 38 43 47 40 41 43 43 43 43 44 46 49 50 51 51 49 51
12 13 13 14 15 15 17 20 24 28 31 34 37 38 39 44 46 42 46 46 44 42 45 48 51 50 50 53 56 56 54 52
16 18 18 18 17 19 22 28 29 32 36 38 39 44 50 49 46 46 43 44 46 49 51 51 51 52 52 50 53 55 55 54
19 20 20 19 21 25 29 32 35 38 42 44 47 48 47 44 40 43 49 51 53 52 51 52 52 53 53 48 45 44 42 42
20 21 23 26 31 30 35 38 41 41 48 51 46 41 41 39 44 47 51 50 50 51 53 53 50 45 39 35 32 33 32 33
17 22 27 28 34 39 39 38 40 42 43 42 38 39 40 43 46 49 52 51 49 49 49 46 39 35 31 33 28 31 30 36
20 24 29 31 35 39 45 46 47 45 44 40 40 41 42 46 48 53 55 54 50 43 38 34 32 33 32 35 37 32 31 36
26 29 32 39 45 48 47 45 46 44 43 43 44 45 46 52 55 56 56 51 40 32 29 28 32 33 41 29 30 34 32 36
30 34 39 42 41 39 44 43 44 46 47 47 44 49 54 55 57 57 52 43 34 29 29 29 34 35 39 35 34 33 32 32
34 37 37 39 43 40 43 44 45 48 43 41 46 51 55 56 54 48 39 33 32 30 28 32 33 33 35 37 37 36 32 30
38 38 40 44 41 47 45 42 42 42 44 48 51 54 53 50 45 40 37 34 32 31 31 34 36 37 36 37 37 36 36 36
47 46 46 46 48 50 34 30 38 42 46 50 53 52 47 43 41 38 36 32 32 36 37 36 37 39 39 38 37 38 38 36
50 51 47 53 48 35 30 37 44 46 49 51 49 45 40 40 37 36 35 36 38 38 35 34 34 35 36 36 35 35 35 36
50 47 49 39 32 36 39 40 44 47 48 46 44 40 39 39 39 35 33 33 32 31 31 34 35 35 36 35 35 36 36 36
38 39 34 33 37 38 38 41 44 46 46 43 40 38 37 36 33 31 30 30 31 34 37 37 37 35 36 36 36 37 36 35

GFSFLT1_700_spd_006.txt.gz
Wind_Speed
17 13 11 12 12 15 16 17 17 20 22 23 21 25 25 24 24 25 27 28 31 32 31 30 31 31 31 33 36 36 40 39
15 14 14 16 15 14 14 19 19 22 23 21 23 26 27 25 26 27 30 32 36 36 35 35 35 38 37 37 39 42 41 42
14 13 13 12 13 13 14 18 21 22 23 25 27 29 31 29 31 32 34 38 41 42 38 39 39 38 38 37 39 42 45 45
10 9 10 11 13 14 16 20 22 23 25 28 31 35 35 36 36 37 36 42 40 40 39 37 37 38 42 44 45 47 51 51
7 7 11 15 14 17 17 22 25 27 28 32 35 39 40 42 43 43 47 42 39 34 37 39 41 44 46 47 48 50 51 55
8 12 15 18 18 19 22 27 29 31 33 36 40 41 41 47 50 51 47 42 35 37 39 42 45 47 48 50 50 51 53 56
14 18 19 20 22 24 27 28 30 35 37 41 42 45 42 48 46 45 41 37 41 44 47 52 51 51 53 52 53 53 54 54
20 20 21 21 23 24 28 32 36 39 42 44 48 51 44 44 44 45 44 45 45 49 53 52 52 53 53 53 51 47 45 43
18 18 20 23 24 27 30 35 43 48 48 46 44 45 44 44 45 46 45 47 50 55 55 54 52 50 47 43 37 39 41 41
20 22 26 29 34 37 36 39 43 44 44 46 44 45 45 45 46 47 47 52 54 55 54 48 45 41 37 32 32 31 37 43
23 25 30 31 31 35 37 39 41 45 45 45 45 46 47 49 48 48 51 54 54 49 43 38 35 32 32 29 33 35 29 31
22 26 26 31 33 34 39 42 43 44 45 43 44 43 43 45 48 52 53 49 42 37 33 31 31 31 35 37 36 37 35 33
24 30 33 38 41 44 42 38 41 44 38 36 35 39 45 49 53 51 44 39 36 33 32 31 30 35 39 39 38 35 36 34
32 34 40 44 45 39 35 44 38 31 31 36 42 45 50 51 49 44 39 35 33 31 30 32 33 34 35 36 35 36 36 37
36 43 44 42 37 39 37 35 34 35 39 40 44 48 49 48 44 40 36 35 31 31 33 37 39 39 39 39 37 38 38 39
43 43 43 40 39 36 34 32 32 35 40 45 47 48 47 44 40 37 37 37 35 35 35 35 33 33 35 34 35 37 38 36
46 44 36 34 33 31 32 34 36 39 43 46 48 47 44 40 37 36 36 33 32 31 30 31 34 36 39 38 37 36 36 36
40 37 32 32 32 32 33 35 39 42 45 47 47 45 42 37 35 32 31 30 30 32 35 37 38 37 38 36 36 35 35 33
39 35 29 30 29 31 34 36 41 43 45 45 44 42 38 35 32 31 29 32 35 37 37 35 34 34 36 35 35 34 34 33

GFSFLT1_700_spd_009.txt.gz
Wind_Speed
16 16 12 12 13 14 12 21 19 23 24 24 25 28 26 28 32 32 30 30 31 33 35 37 35 35 37 35 35 34 35 37
23 20 20 18 18 17 13 24 25 22 25 26 28 28 28 32 34 38 36 37 37 39 41 45 43 41 38 35 33 33 35 35
21 21 20 22 22 24 23 24 21 23 27 31 29 30 31 34 36 40 39 41 41 44 46 50 43 40 36 35 35 38 39 40
15 16 14 12 11 13 17 20 22 25 31 32 33 32 35 38 42 41 43 43 45 47 46 45 40 39 39 39 41 44 47 45
8 9 10 13 16 18 21 25 27 30 32 36 34 38 44 46 47 48 51 48 48 45 44 42 41 43 44 46 48 51 51 53
9 10 14 17 20 22 25 29 33 35 38 37 40 45 45 45 49 55 49 43 44 45 42 43 43 45 49 53 55 54 55 57
13 16 21 24 24 25 28 31 35 34 35 44 48 52 50 45 48 51 49 48 47 47 48 49 51 52 57 57 57 59 57 56
18 20 16 24 23 23 25 27 30 37 41 44 47 49 48 50 49 49 49 49 51 52 53 52 54 58 58 57 50 49 45 43
15 15 19 18 28 29 30 31 34 39 42 41 44 46 45 47 48 47 49 51 52 51 52 55 56 56 48 43 42 42 40 34
11 12 15 28 30 32 35 33 34 38 42 44 44 45 48 48 49 49 48 47 49 52 54 52 47 42 43 39 36 35 34 36
16 19 22 24 26 32 37 40 44 45 42 44 47 47 43 43 42 44 48 52 52 50 48 41 37 37 36 35 35 36 39 38
19 21 27 26 30 27 33 36 43 41 41 47 43 40 40 43 47 50 51 51 49 44 40 34 32 33 33 34 36 38 38 35
19 21 26 31 33 34 40 43 37 36 36 36 36 40 43 47 49 50 51 47 41 30 32 30 30 33 33 31 30 31 36 34
25 24 26 35 37 46 40 36 34 33 33 34 38 41 43 47 49 50 49 46 41 37 37 31 34 37 38 39 36 33 33 32
27 37 42 44 41 32 35 32 31 33 35 38 41 44 47 49 49 46 43 41 39 38 35 33 33 33 33 33 33 35 36 34
40 41 41 41 39 34 31 28 31 31 37 40 43 46 48 45 44 44 41 39 37 34 32 31 32 34 32 39 37 37 37 36
37 38 42 36 25 28 28 30 28 32 38 35 39 41 43 42 43 41 38 34 30 30 32 32 31 28 34 36 34 36 36 35
39 41 33 25 26 27 28 28 33 34 35 34 33 42 42 40 38 31 28 29 28 28 27 27 29 31 36 37 37 37 38 37
39 33 32 31 29 29 34 28 35 33 34 38 34 43 40 34 28 26 27 25 27 27 28 31 34 34 40 42 41 40 40 37

GFSFLT1_700_spd_012.txt.gz
Wind_Speed
15 12 13 15 17 19 16 22 23 20 30 21 22 23 27 33 34 33 37 35 38 40 41 43 41 43 44 45 40 40 38 38
23 23 24 25 23 22 19 21 20 23 27 28 28 29 33 34 32 36 38 41 42 42 44 46 42 49 46 44 44 42 39 38
22 29 30 25 21 19 21 23 24 25 30 31 29 35 35 35 35 40 45 45 43 49 48 52 54 45 45 44 42 42 42 39
25 25 20 15 13 14 16 19 21 22 29 34 37 35 37 37 38 43 47 52 56 47 44 45 45 44 42 43 45 45 47 45
3 11 8 10 13 17 20 25 27 26 29 32 34 37 39 47 49 50 44 42 45 44 42 44 44 46 47 48 48 50 52 52
10 10 15 17 18 21 25 28 32 33 34 35 39 43 43 45 46 47 46 50 47 46 48 49 49 50 49 50 52 53 54 56
11 15 19 23 25 27 24 24 28 34 36 37 40 43 42 43 47 50 49 51 52 50 51 50 50 50 51 52 54 55 55 53
3 4 8 18 25 26 26 26 24 28 34 42 42 43 48 50 48 49 50 49 48 47 48 49 52 54 56 56 53 48 44 41
11 16 16 17 21 30 29 31 31 33 36 43 49 53 50 45 47 48 47 44 45 48 51 52 53 53 53 50 43 40 38 39
10 8 15 22 25 29 35 37 35 34 39 44 48 50 46 45 45 43 43 45 45 47 49 52 51 50 45 41 38 39 39 37
15 16 21 26 33 35 34 40 37 43 44 46 44 43 43 43 42 44 43 45 48 49 50 49 46 37 35 34 35 35 33 31
19 17 18 27 34 40 36 46 42 43 48 44 39 40 40 41 41 44 46 49 48 48 45 41 37 37 36 38 38 35 33 31
22 25 32 36 41 41 50 42 42 46 42 41 37 37 39 39 41 45 48 50 48 46 43 41 39 37 35 33 34 34 35 37
30 31 36 39 41 43 42 42 40 41 41 41 40 37 41 41 44 47 47 46 46 41 39 36 34 33 33 33 33 34 35 34
29 40 39 40 41 43 40 35 36 36 44 39 41 48 49 46 46 44 44 44 42 39 34 33 33 34 34 34 33 32 32 34
38 40 43 43 40 32 32 33 35 36 38 29 42 43 42 52 43 47 44 43 40 38 35 33 33 32 30 33 33 33 34 37
39 41 40 35 33 28 28 31 35 38 48 39 45 50 33 42 35 47 41 38 39 36 35 35 33 33 36 38 38 38 39 40
40 38 29 25 27 31 28 29 34 42 41 47 52 59 48 44 43 44 40 37 34 37 34 36 37 36 38 42 42 42 43 42
36 26 27 26 36 29 32 37 41 36 37 43 53 44 46 34 42 39 43 37 38 32 34 37 41 37 39 42 44 41 38 38

GFSFLT1_700_spd_015.txt.gz
Wind_Speed
20 18 18 17 19 21 23 25 23 22 22 25 27 28 31 30 32 41 42 41 42 41 44 48 50 50 47 44 42 40 40 41
27 25 21 21 22 21 24 22 24 25 28 27 27 31 32 35 43 39 36 39 38 48 47 49 51 45 43 40 42 43 43 41
26 26 22 24 25 26 27 23 22 26 26 27 29 31 32 33 31 35 38 43 50 51 45 45 47 46 43 40 41 44 45 44
23 26 26 22 19 18 17 15 17 22 26 28 31 33 34 36 34 34 43 49 48 47 47 47 45 47 47 46 45 46 48 46
25 20 16 11 12 15 19 20 22 25 27 29 32 33 33 34 39 44 45 43 49 50 50 50 50 47 47 47 47 47 47 48
14 14 13 14 16 20 23 26 28 28 29 31 33 36 38 40 42 43 49 49 47 47 47 46 45 45 46 47 48 49 50 50
13 17 17 17 20 24 24 22 25 27 32 38 41 41 42 44 46 48 48 46 46 46 45 45 47 48 48 47 48 49 49 47
14 17 18 22 23 28 34 34 33 33 35 41 41 43 47 49 51 50 47 45 45 44 44 44 45 46 48 50 50 47 48 42
8 8 12 14 15 21 35 38 40 42 41 47 44 47 53 54 56 53 48 46 45 44 44 47 49 50 49 48 45 42 39 38
7 12 18 22 26 30 34 39 42 44 44 50 45 47 52 59 54 51 48 47 44 44 46 48 47 46 45 41 40 39 40 41
12 14 19 26 32 36 39 42 42 44 49 46 45 47 54 53 50 48 46 46 46 46 46 47 46 44 41 38 35 37 38 37
21 25 27 29 29 36 37 38 41 44 46 43 42 44 46 48 39 40 43 43 49 49 47 49 48 45 41 37 35 34 34 34
25 26 28 32 37 37 41 41 42 42 40 41 44 38 49 39 42 48 43 41 43 44 48 47 44 40 36 34 34 35 34 33
28 29 40 39 40 42 42 42 40 39 40 40 43 41 47 47 41 50 45 45 37 44 44 41 41 37 37 35 34 30 29 31
30 38 41 39 44 43 39 36 35 36 38 38 41 44 49 51 47 50 59 34 36 38 39 39 43 39 34 31 32 32 33 34
40 40 38 42 41 39 38 37 35 37 39 41 46 48 47 46 50 53 41 32 34 37 38 36 45 39 31 34 37 37 40 42
39 38 41 42 39 38 34 39 40 39 41 44 47 46 43 48 51 45 26 33 35 38 33 41 42 32 36 40 44 44 45 45
38 40 40 35 32 33 41 40 41 45 49 49 42 43 48 50 54 33 31 34 35 35 35 40 32 36 41 43 45 47 44 41
37 34 26 28 33 40 43 45 48 50 47 43 41 42 42 45 41 22 31 34 33 34 37 34 34 38 39 42 43 42 43 40

GFSFLT1_700_spd_018.txt.gz
Wind_Speed
22 19 17 17 16 17 20 20 20 18 19 19 19 21 24 28 30 31 32 35 34 34 37 42 49 45 45 45 42 41 42 44
25 23 21 17 20 21 21 23 25 18 19 18 18 21 26 29 33 34 33 33 37 41 48 47 47 47 49 50 49 47 48 46
28 24 21 19 21 22 24 18 14 15 16 18 21 25 29 30 33 35 39 40 40 44 44 45 49 51 50 48 47 47 46 46
25 21 21 23 18 14 12 11 12 14 17 20 22 24 26 30 35 36 37 39 43 47 50 53 51 48 47 46 45 44 45 45
16 15 14 11 10 11 13 16 19 22 24 25 25 27 30 32 33 35 37 42 47 50 50 49 48 47 45 45 45 45 46 46
15 12 14 16 19 21 22 23 22 22 22 23 28 33 36 36 37 42 46 48 50 52 52 50 48 48 49 49 48 47 47 48
11 11 11 15 19 19 25 26 24 29 34 37 39 41 44 47 47 45 50 46 57 55 52 48 48 47 46 47 49 52 52 52
13 11 16 22 24 27 32 33 34 36 41 44 44 45 47 50 44 48 44 54 59 50 44 45 45 48 48 49 50 50 52 49
8 9 13 21 25 27 28 30 32 37 44 44 46 48 49 45 48 52 53 55 48 44 42 45 47 48 49 47 46 48 46 45
12 13 15 18 20 22 26 32 36 42 42 44 46 48 49 49 46 46 45 49 39 43 43 47 43 41 42 45 49 48 45 41
16 16 19 23 25 29 35 36 41 43 44 46 46 45 44 44 42 41 44 44 47 47 46 44 46 46 42 43 44 44 41 38
18 21 23 27 30 33 41 41 42 43 44 41 40 41 42 43 41 46 48 52 50 46 53 50 33 35 36 37 37 36 36 34
26 26 27 34 37 41 41 42 44 43 41 39 40 42 43 44 47 51 53 45 48 48 47 32 26 32 37 35 33 31 30 29
27 29 31 37 39 40 42 43 43 39 38 38 39 42 44 48 51 55 45 45 46 49 34 26 29 35 38 34 28 30 32 33
28 31 37 44 45 44 44 43 42 40 38 38 41 42 47 52 54 50 44 49 41 42 41 33 34 37 38 31 32 34 36 38
29 37 42 43 42 44 42 42 41 42 43 43 45 49 53 40 40 45 48 47 40 24 27 31 35 38 34 34 36 37 39 42
37 40 42 41 44 42 42 40 41 44 44 47 50 45 41 38 41 42 40 31 36 26 31 34 32 38 34 36 37 39 44 45
40 39 40 42 39 40 39 40 42 44 47 48 41 40 40 41 40 38 34 28 26 27 30 32 35 35 36 36 40 43 44 43
36 36 37 37 37 37 39 41 44 46 43 41 39 39 39 40 40 34 30 21 24 26 31 29 31 33 34 37 40 43 42 43

GFSFLT1_700_spd_021.txt.gz
Wind_Speed
15 16 16 15 16 23 26 22 21 20 19 14 14 20 23 24 27 30 32 35 36 34 35 42 45 47 52 53 54 53 54 57
21 19 18 19 18 18 20 21 23 13 12 13 17 20 22 26 29 30 33 32 36 41 40 45 48 52 55 56 58 56 53 52
22 23 19 19 14 17 22 23 18 13 14 16 17 19 25 26 27 32 34 37 38 41 44 47 50 54 55 53 51 50 50 50
17 14 14 15 16 17 16 12 12 13 14 15 17 20 23 25 27 29 34 37 40 44 47 51 53 53 55 52 48 48 48 46
7 8 12 13 14 12 11 12 14 12 10 13 16 23 28 31 34 37 41 43 44 48 52 49 47 56 55 49 47 47 47 49
7 6 8 10 12 15 15 16 17 18 21 25 31 37 39 40 42 46 46 46 50 47 50 54 64 56 52 50 47 48 51 51
8 10 8 11 13 13 16 24 28 31 33 35 38 41 42 45 48 50 47 51 53 57 56 55 55 47 42 41 43 43 44 44
12 15 16 19 19 20 22 27 30 34 37 38 41 42 45 46 48 50 50 49 48 49 44 42 43 47 46 47 42 41 44 47
21 20 19 23 20 21 24 28 29 36 39 42 43 45 47 49 48 48 47 47 44 45 46 48 48 49 40 44 40 40 39 45
22 20 24 19 19 20 27 32 38 43 48 43 45 47 47 46 45 44 44 44 46 49 51 46 40 44 47 41 40 38 41 45
21 24 20 18 23 28 28 35 40 42 41 43 45 45 44 43 43 44 45 48 50 52 54 45 44 43 40 29 31 37 41 41
22 24 25 30 28 28 33 41 43 41 42 42 43 42 40 40 42 45 49 52 54 55 49 45 41 31 30 31 31 38 39 35
24 26 24 25 29 32 40 45 39 42 41 42 41 40 42 44 47 49 53 59 58 53 48 42 34 41 31 30 35 41 36 32
29 30 29 30 33 38 43 41 41 41 42 43 43 44 45 46 50 54 53 49 47 45 44 37 29 25 28 34 36 38 36 36
28 28 30 33 38 43 41 41 43 44 43 43 43 44 47 49 50 49 45 42 41 38 32 27 28 27 31 35 38 37 36 36
28 30 35 38 37 39 40 42 43 44 43 42 44 46 46 46 45 43 40 37 36 31 31 28 30 33 34 37 38 36 36 40
33 37 37 37 37 37 39 41 43 43 42 44 45 44 44 44 44 41 38 36 30 29 25 26 27 31 35 36 35 36 39 42
35 38 39 35 35 38 40 41 42 43 44 45 45 45 44 44 42 39 37 33 26 22 25 25 28 30 32 33 34 37 39 42
39 40 35 34 36 38 39 40 41 43 45 45 46 45 44 43 39 36 35 30 25 25 24 24 26 29 31 33 35 37 40 42

GFSFLT1_700_spd_024.txt.gz
Wind_Speed
14 15 15 15 15 18 24 29 30 23 19 12 11 14 19 21 23 23 29 36 30 38 36 40 46 49 50 53 54 55 57 58
18 19 21 18 18 19 32 23 20 8 15 13 14 16 20 22 24 31 28 35 37 39 41 43 47 49 51 54 56 57 56 55
23 24 23 17 10 12 12 11 13 13 11 11 12 15 20 24 26 29 30 32 35 37 40 44 47 50 53 56 56 57 59 60
7 7 8 11 9 8 8 10 12 13 12 12 14 15 18 24 28 30 32 36 40 45 49 52 54 55 57 58 57 54 54 47
4 5 10 3 5 9 11 8 12 12 14 17 21 25 29 35 37 39 41 45 48 51 52 54 54 55 56 56 52 48 45 45
5 7 6 3 11 15 13 11 13 20 23 28 31 33 38 39 39 42 44 47 47 48 51 52 52 52 51 48 48 49 50 51
11 14 4 10 20 23 17 19 20 24 26 31 34 39 39 39 41 44 45 45 45 48 48 48 48 49 50 50 47 44 43 45
8 8 11 21 21 19 22 22 22 25 29 34 38 39 39 40 40 41 42 44 45 46 47 50 51 51 51 47 44 43 45 43
13 22 27 17 22 24 25 25 26 27 33 38 41 40 40 42 44 46 46 48 50 50 51 53 53 53 50 46 47 36 33 32
23 27 19 21 27 27 26 28 27 31 37 45 44 44 45 46 46 47 47 48 50 51 53 53 51 47 42 44 38 28 31 34
24 21 23 26 29 29 29 31 30 35 41 44 42 43 44 45 45 47 47 48 50 52 49 47 44 42 39 34 34 34 29 33
21 22 25 28 30 32 33 29 34 39 40 39 41 42 43 46 47 47 49 50 48 47 47 46 43 40 31 38 35 30 32 36
23 24 26 28 32 32 29 34 40 37 38 40 41 43 45 47 49 51 50 49 46 46 43 39 36 31 25 27 30 32 36 38
25 26 26 28 30 33 38 40 34 37 39 40 42 44 46 48 49 48 47 46 45 41 37 36 30 28 32 29 34 36 38 40
26 27 28 30 33 38 40 36 38 38 40 42 45 47 48 48 47 46 46 44 41 38 35 30 28 25 27 32 34 37 37 36
28 28 29 32 38 37 36 36 37 40 42 45 47 48 48 47 47 46 45 42 39 35 33 28 24 27 30 31 34 33 34 35
28 28 31 37 34 33 35 37 39 41 44 46 47 48 47 47 48 46 44 39 36 33 28 26 28 28 30 30 31 32 34 37
28 32 35 34 33 36 37 38 40 41 43 45 46 47 47 47 46 44 41 37 34 30 27 25 27 27 27 29 29 31 34 36
32 35 35 35 35 36 35 38 39 41 43 45 45 45 45 44 42 40 37 34 31 28 25 25 24 25 27 28 30 32 34 36

GFSFLT1_700_spd_027.txt.gz
Wind_Speed
11 12 13 15 14 16 20 25 23 24 24 16 5 7 11 14 19 23 23 28 31 32 34 35 38 41 45 47 49 52 54 56
16 15 16 20 19 18 21 21 10 10 5 7 8 10 13 14 18 23 25 26 29 33 36 38 40 43 45 48 49 50 52 55
18 18 19 17 16 14 11 7 8 9 10 9 9 10 13 15 17 23 26 28 32 36 39 41 45 47 49 51 53 55 55 56
9 6 5 5 3 2 4 6 5 4 7 8 9 13 16 22 26 28 31 34 37 40 42 45 48 50 51 52 53 54 54 53
7 3 3 2 4 8 12 8 8 10 11 11 16 21 26 30 31 32 34 37 40 43 46 47 48 49 49 49 50 50 50 48
7 2 3 4 5 14 13 13 14 15 17 20 23 26 30 35 35 35 36 39 41 43 44 45 46 46 47 49 49 49 47 43
9 4 3 2 13 22 22 14 17 20 22 23 25 29 34 37 36 37 38 40 41 42 43 46 48 48 49 49 48 46 44 42
8 6 4 17 24 14 15 17 20 22 24 24 28 33 36 37 37 37 40 42 44 46 46 47 48 48 49 48 46 43 40 39
9 10 13 16 11 14 20 21 23 25 28 29 32 36 37 38 41 43 43 44 45 46 47 47 47 47 46 44 40 36 32 31
13 14 17 15 16 19 21 23 24 29 32 33 38 40 40 42 43 43 44 45 46 46 46 46 45 43 41 37 34 30 31 34
15 19 18 20 21 22 24 25 28 35 36 39 40 38 40 42 42 43 44 44 44 44 44 44 42 40 35 34 30 27 31 28
18 20 22 23 24 25 29 31 33 38 39 42 35 40 39 41 42 43 44 45 45 45 45 43 40 37 34 30 25 29 28 30
23 24 24 26 27 29 32 33 37 39 40 36 37 39 41 41 42 43 44 46 46 46 44 40 37 34 31 27 27 29 30 34
25 26 26 28 29 33 33 35 40 38 33 35 39 40 40 42 44 45 45 46 46 45 41 38 34 31 30 26 26 29 33 34
28 27 28 29 32 33 34 38 36 32 35 36 38 40 42 44 45 46 46 46 45 42 38 33 31 28 24 25 29 30 31 33
28 29 30 31 31 34 37 35 32 34 34 37 39 42 43 44 45 45 45 44 44 40 35 31 28 26 27 26 28 28 30 30
30 31 31 31 32 36 35 30 32 34 35 38 40 42 43 44 44 45 44 44 42 37 33 29 26 26 26 27 25 27 28 31
28 28 30 30 34 31 30 32 33 34 36 38 40 42 43 44 44 43 42 41 38 34 30 28 24 24 23 24 25 26 28 31
24 27 29 34 33 31 31 31 32 34 37 39 41 43 43 43 42 41 39 38 35 32 28 25 23 22 23 24 24 26 29 32

GFSFLT1_700_spd_030.txt.gz
Wind_Speed
15 16 17 18 18 19 20 20 21 22 19 15 11 6 10 11 13 15 17 23 26 28 32 35 36 38 41 42 44 46 46 49
15 15 15 17 20 20 20 17 14 6 4 3 5 6 8 9 12 16 19 24 29 31 33 35 36 39 41 44 45 47 49 51
16 17 20 20 22 22 20 13 6 7 3 8 5 2 4 8 11 17 21 25 28 31 33 36 38 41 44 45 47 49 49 51
17 16 13 11 10 10 8 2 5 5 6 4 3 4 8 12 18 24 26 28 31 34 36 38 41 42 44 46 48 48 50 47
14 11 9 8 8 8 4 4 5 7 7 6 9 11 15 19 24 28 31 32 34 36 38 39 41 42 44 45 47 48 48 47
13 12 10 8 7 3 8 11 11 11 12 13 15 18 21 24 29 32 32 34 35 36 38 39 41 43 45 46 46 46 46 45
15 13 9 9 7 11 16 13 11 16 16 17 19 22 25 29 34 33 34 35 36 38 40 42 43 43 44 45 45 45 42 40
16 12 8 6 10 11 11 13 16 17 19 21 24 26 30 33 35 34 35 36 38 40 42 42 43 44 44 44 44 31 31 29
17 11 10 10 9 9 12 17 19 21 22 27 30 30 32 38 35 36 37 40 41 42 41 42 42 44 44 43 37 31 29 31
17 14 12 12 11 14 17 20 22 24 28 30 34 33 37 37 36 36 39 41 41 42 43 43 44 43 42 35 29 29 30 31
20 17 15 15 16 19 22 24 26 30 32 34 34 39 37 34 35 37 39 40 41 42 42 43 42 42 39 28 33 28 26 25
21 20 19 20 21 24 26 28 31 34 38 36 41 40 33 34 35 37 39 41 41 42 42 42 42 39 36 31 28 27 29 28
24 23 23 25 27 27 29 32 35 38 36 40 41 34 33 35 36 38 40 42 43 43 43 43 41 38 33 28 31 29 27 29
27 27 28 30 30 30 32 36 39 34 39 40 34 33 33 35 37 40 42 43 43 43 43 42 39 35 31 31 27 25 27 31
30 32 33 34 33 33 36 39 34 34 38 31 32 32 34 37 39 41 43 43 42 42 42 42 37 32 29 26 26 26 27 28
30 34 37 35 35 35 38 38 32 35 32 31 32 34 36 38 40 42 42 42 41 42 42 39 33 29 26 26 25 24 25 27
28 33 35 35 34 37 39 33 35 33 32 31 32 34 37 39 39 41 41 41 42 41 39 35 32 28 25 23 21 24 25 26
25 28 32 33 35 38 34 37 33 32 30 30 33 35 37 38 39 40 41 41 40 38 35 34 30 27 24 22 22 23 24 26
24 27 31 33 36 34 36 35 32 28 28 31 33 37 38 39 40 40 39 39 37 35 34 32 27 26 24 22 21 22 23 26

GFSFLT1_700_spd_033.txt.gz
Wind_Speed
19 20 19 19 20 16 19 19 18 18 19 15 3 4 10 9 12 16 15 16 19 23 27 30 31 34 36 40 40 41 43 46
19 21 21 20 22 20 20 20 20 20 11 9 6 8 9 11 14 12 12 16 19 23 28 30 30 36 39 41 42 43 45 46
22 21 22 23 23 22 22 23 21 13 12 9 9 9 10 11 10 12 16 20 23 26 27 32 35 35 40 43 43 45 45 47
24 23 24 24 23 20 18 14 12 11 11 9 11 12 12 13 15 18 20 24 28 29 32 33 36 38 40 43 46 47 46 46
23 21 19 16 15 14 12 12 9 8 11 12 11 12 11 18 20 23 27 29 30 32 35 36 37 39 41 43 43 45 45 45
21 17 16 15 17 14 11 8 11 12 12 13 13 15 16 19 21 26 28 35 34 35 37 38 38 39 41 43 43 43 42 42
18 17 18 19 15 12 12 13 13 13 14 16 18 20 23 27 25 27 34 35 34 37 38 39 40 41 42 42 43 41 40 36
20 20 20 17 14 13 14 14 14 16 18 20 22 25 25 28 30 31 36 33 35 37 37 37 39 39 40 42 43 39 34 28
21 21 20 16 16 13 14 16 19 20 22 24 26 28 30 31 30 35 34 35 35 36 37 38 39 41 41 40 40 39 30 28
22 23 21 19 16 16 17 20 22 24 25 28 31 34 36 30 36 36 36 36 35 37 38 39 40 40 39 39 37 34 30 32
23 23 23 23 21 20 20 22 26 27 30 33 36 38 36 37 38 36 35 35 35 36 38 39 40 40 39 38 33 26 26 31
22 25 26 26 27 24 25 27 30 31 34 38 41 42 38 36 35 34 35 35 36 38 40 41 40 40 40 35 27 23 28 33
23 26 29 28 30 30 30 32 33 36 38 42 44 37 34 34 34 34 35 36 38 40 41 41 41 39 37 36 31 32 32 30
25 28 30 31 32 33 35 35 37 39 40 44 43 34 34 33 33 35 36 38 39 40 41 41 40 40 39 35 30 29 28 29
26 29 32 33 35 37 39 39 40 40 42 45 34 32 31 33 33 35 37 38 40 41 41 41 41 38 36 33 29 27 26 28
30 31 33 35 39 41 41 42 41 41 43 40 30 33 33 33 33 35 39 40 41 41 41 40 38 37 35 30 27 26 26 26
24 26 31 36 40 41 42 42 41 42 44 33 32 32 31 31 35 39 38 40 40 39 40 38 36 37 34 29 26 26 25 25
22 24 30 35 38 38 41 40 43 44 37 34 32 30 28 33 37 37 38 39 39 38 38 36 35 36 31 27 26 25 24 24
23 26 30 34 36 40 37 42 45 42 39 31 27 29 32 33 35 38 39 39 38 36 35 34 34 35 30 27 25 24 23 24

GFSFLT1_700_spd_036.txt.gz
Wind_Speed
14 15 14 14 12 9 15 16 12 16 15 15 10 11 13 12 13 17 16 16 17 18 18 20 24 28 31 35 36 36 37 39
17 15 18 17 22 13 16 17 15 18 18 16 13 13 12 10 13 15 16 15 16 20 24 26 26 30 35 38 39 40 40 41
17 19 22 23 24 23 20 20 18 22 20 14 14 13 11 12 13 14 16 17 19 23 25 29 32 34 35 38 40 41 41 41
22 25 24 24 27 26 24 24 21 18 16 13 13 13 13 15 16 18 20 21 24 26 30 30 32 35 36 37 38 41 42 40
28 25 27 28 30 26 25 22 16 16 15 14 13 14 18 20 21 21 20 22 26 29 33 33 33 33 35 37 37 40 40 41
25 27 26 25 26 23 21 17 17 15 13 15 13 16 20 21 23 25 28 28 29 34 35 37 37 37 37 39 40 42 42 41
29 31 26 25 23 22 19 13 16 16 17 18 16 19 22 24 25 26 28 32 32 34 36 37 37 37 38 38 38 40 40 39
22 21 15 16 20 18 16 15 20 18 18 19 21 22 26 29 31 32 34 32 32 32 35 35 35 37 37 37 37 39 41 40
24 25 27 23 20 19 18 19 21 19 19 23 24 26 30 34 36 35 34 34 31 32 33 34 35 37 38 38 38 38 39 38
22 21 23 22 22 21 20 21 24 22 22 26 27 30 33 36 38 40 39 33 31 32 35 36 37 37 37 37 37 35 35 35
22 23 25 25 24 26 25 24 27 28 28 28 30 34 36 39 42 44 32 31 30 31 35 37 37 38 39 38 37 36 33 31
21 23 25 28 29 30 27 27 29 32 32 33 36 38 40 41 45 45 34 32 30 33 36 37 38 38 39 37 36 35 34 31
22 23 27 30 31 32 29 29 33 36 36 39 40 40 45 41 46 39 33 31 31 34 37 38 39 40 38 39 36 35 32 29
23 25 29 30 33 33 32 31 34 38 42 43 40 44 47 38 44 33 33 31 32 36 38 39 39 41 37 38 35 33 30 29
22 24 30 33 39 36 34 36 37 38 44 40 43 46 44 41 37 29 29 30 34 36 38 40 41 37 34 33 32 30 30 30
21 25 31 34 41 40 34 37 40 42 43 41 41 48 39 38 28 28 27 33 33 35 38 38 40 37 37 32 31 29 29 29
26 29 32 38 38 35 36 39 42 46 40 40 42 43 44 32 26 26 33 34 33 36 36 36 38 34 32 28 30 28 28 28
19 26 25 24 29 33 36 40 45 44 39 41 45 48 39 26 27 33 30 32 36 36 36 36 35 32 31 28 28 28 28 28
16 19 23 26 28 30 37 43 43 41 42 45 41 31 29 26 27 25 27 34 38 37 34 32 33 31 30 29 28 29 29 28

GFSFLT1_700_spd_039.txt.gz
Wind_Speed
7 7 5 6 6 4 8 5 9 10 10 13 10 11 14 15 16 17 18 19 23 23 20 21 25 28 30 31 33 35 34 35
13 12 10 7 6 8 7 9 12 13 13 14 11 13 14 14 14 15 16 18 20 20 21 23 25 27 29 32 35 36 35 34
16 15 18 16 13 11 13 13 14 15 17 19 16 13 13 13 15 16 17 18 21 22 23 24 26 27 30 34 37 37 36 36
21 21 24 24 23 21 19 19 16 20 21 20 16 15 16 15 18 17 19 21 23 22 22 24 30 29 30 33 35 37 38 37
24 24 28 28 27 27 26 21 20 23 20 15 15 17 20 18 19 19 20 22 25 27 28 29 33 29 31 32 33 35 38 38
28 25 23 26 32 29 27 24 22 19 18 16 18 22 23 20 21 21 22 25 28 31 37 35 32 32 31 32 34 37 39 40
28 28 31 30 26 27 26 25 22 21 19 18 20 23 24 24 25 27 30 31 33 36 34 37 35 34 33 34 36 38 39 39
32 34 34 32 29 27 26 26 24 20 19 20 19 23 24 26 28 32 34 35 39 42 41 34 32 33 32 34 37 38 38 39
34 36 35 34 20 17 22 25 23 19 17 19 21 23 27 29 32 34 38 40 39 48 42 33 33 33 34 35 37 38 39 38
32 32 28 23 22 18 20 21 22 20 20 21 23 26 30 33 36 39 40 41 42 44 40 33 34 33 33 35 36 38 37 37
18 21 21 22 22 22 23 26 28 27 27 25 26 28 30 35 39 44 40 46 44 43 34 33 33 33 34 36 36 37 38 36
16 18 20 21 21 23 27 29 32 33 33 32 33 33 35 35 42 44 50 49 40 34 30 30 31 32 33 35 36 34 35 35
17 17 20 22 23 22 20 26 32 36 37 39 39 39 39 40 44 48 48 47 36 30 27 30 31 34 34 35 37 36 34 32
22 23 24 26 27 29 27 28 28 32 37 40 43 43 44 46 45 47 50 41 33 26 29 32 37 32 35 35 36 33 32 31
21 24 25 29 32 33 32 35 39 39 38 39 41 43 45 46 50 46 39 32 28 30 31 33 33 36 37 33 32 32 30 28
16 24 25 27 30 33 36 36 38 39 39 39 41 43 46 48 44 43 37 31 26 31 27 28 34 37 37 29 28 29 29 27
19 18 24 25 28 31 33 32 34 39 39 40 43 46 46 48 49 47 35 28 29 31 25 30 33 37 36 30 27 28 29 27
19 22 21 26 31 32 31 32 35 39 42 44 47 49 51 56 46 37 30 31 34 23 27 30 32 34 33 29 27 28 29 28
17 18 19 21 25 28 30 33 36 39 42 46 49 52 55 46 44 33 31 26 23 28 31 32 32 32 31 29 28 29 29 28

GFSFLT1_700_spd_042.txt.gz
Wind_Speed
7 10 12 10 7 5 5 3 3 4 6 7 8 8 10 13 17 18 18 20 20 19 20 23 24 23 26 30 32 31 33 35
6 6 6 11 10 7 5 6 8 9 12 12 12 11 12 13 16 17 19 20 21 19 21 22 23 26 29 31 34 32 33 35
13 10 9 10 10 10 11 10 10 13 15 15 16 16 14 17 17 21 21 19 18 19 22 26 29 29 28 33 33 34 35 34
16 15 14 15 14 13 14 14 14 16 19 20 20 18 16 17 18 18 18 19 20 24 28 29 30 31 34 36 36 37 36 34
18 18 17 17 19 19 20 19 18 20 21 23 19 16 16 18 18 17 19 21 26 28 26 26 27 33 31 35 37 36 38 36
24 21 20 20 20 20 22 24 24 23 25 23 16 16 17 18 19 19 21 24 28 26 28 31 34 42 40 36 37 38 38 38
25 26 24 23 25 23 22 24 30 28 25 17 14 16 16 19 21 21 23 26 29 32 35 34 32 40 44 38 36 41 40 40
30 28 28 26 29 27 24 28 27 30 23 18 18 19 18 20 23 26 30 32 35 35 35 42 41 41 44 33 37 40 41 41
24 25 26 27 27 25 25 24 21 24 21 18 21 21 22 24 29 33 35 36 38 42 48 43 41 32 38 37 37 40 42 42
26 27 24 24 29 26 27 23 21 23 21 22 23 25 28 32 35 38 40 43 42 47 47 53 51 40 37 36 37 40 42 40
22 25 28 30 28 26 25 25 24 24 25 25 26 28 31 35 36 39 43 44 41 53 50 53 51 42 35 34 36 40 38 38
9 10 13 14 17 20 22 24 23 26 27 29 32 34 35 37 38 39 41 57 46 47 53 50 43 35 35 37 38 34 34 37
9 9 11 11 12 17 18 17 18 20 21 23 26 31 32 36 38 44 50 46 51 52 51 48 40 39 37 31 30 35 35 36
13 17 18 18 20 17 17 22 25 26 30 30 31 33 34 37 40 42 44 46 51 53 49 43 39 35 31 30 32 33 36 35
17 20 21 22 21 21 23 27 29 30 29 30 33 36 36 39 41 43 46 48 53 55 49 39 38 42 30 30 30 32 35 34
16 19 22 24 25 27 29 32 30 30 29 31 30 35 40 43 43 48 51 53 55 51 40 36 41 36 29 28 32 32 33 34
15 19 21 23 24 24 27 28 29 30 32 33 37 39 39 44 49 56 59 54 55 43 40 45 33 26 26 30 33 32 31 32
18 18 20 20 19 20 24 27 30 33 34 35 36 41 44 48 53 57 58 49 33 40 37 27 25 26 30 32 33 32 32 32
15 18 19 19 22 23 26 30 33 36 37 38 40 44 48 51 58 50 34 40 38 26 27 25 27 31 32 32 33 32 32 33

GFSFLT1_700_spd_045.txt.gz
Wind_Speed
13 12 10 11 10 10 10 9 8 10 9 6 4 7 6 9 11 14 17 21 19 20 19 16 17 19 22 27 30 32 34 37
12 14 13 12 12 11 9 7 4 4 3 5 7 7 9 11 14 17 19 20 19 21 21 21 23 26 30 32 33 35 37 38
12 11 12 11 11 9 8 6 6 6 7 9 11 12 13 15 17 18 19 20 20 22 23 24 27 30 33 34 37 39 44 41
6 7 6 9 10 9 9 9 10 11 11 14 16 17 17 16 16 18 21 22 22 23 24 26 27 28 31 31 36 38 41 42
14 9 7 6 4 7 13 13 15 16 17 18 18 20 18 15 19 22 22 19 21 23 26 27 29 30 34 35 37 38 38 40
16 14 12 10 9 9 10 13 16 19 20 21 21 20 17 18 18 20 20 21 23 25 27 29 32 35 40 44 46 45 41 40
20 20 18 18 16 16 15 15 14 19 23 28 21 19 17 18 18 19 22 25 28 30 33 35 37 42 44 41 50 52 41 41
23 23 21 21 18 17 15 15 17 22 26 24 18 17 15 18 19 22 26 30 34 36 37 43 42 44 46 47 55 55 52 43
25 25 22 22 21 18 16 17 19 22 22 19 19 21 19 21 25 27 27 31 35 40 40 34 44 41 46 51 49 51 47 38
18 19 19 19 20 19 18 20 22 24 24 23 21 22 24 27 27 29 35 37 38 47 49 40 40 52 47 49 50 45 40 39
18 15 13 15 18 22 24 23 23 25 26 25 23 24 28 27 28 32 35 39 36 41 45 51 49 49 50 55 48 39 39 43
11 11 10 13 16 17 18 21 22 20 17 18 20 21 22 26 28 29 32 34 43 44 41 47 51 53 56 54 48 46 46 45
1 2 5 8 9 12 15 13 14 16 17 18 21 23 25 30 33 32 36 37 43 42 43 47 51 53 54 53 47 44 43 42
6 8 12 13 15 16 19 16 18 20 21 23 25 25 26 26 29 33 36 43 45 41 44 50 54 54 46 40 46 42 38 33
13 14 17 19 22 24 24 25 26 25 26 30 28 27 31 29 29 33 33 42 46 48 54 57 55 41 43 45 40 34 32 32
16 16 17 20 24 26 27 28 25 27 31 32 29 32 31 32 34 43 37 47 47 53 55 41 35 41 36 31 31 32 34 36
18 17 18 21 24 25 27 26 25 29 31 30 32 31 31 34 42 44 48 53 54 37 36 41 38 29 28 27 30 34 36 38
15 17 18 19 18 17 17 19 19 24 28 31 32 33 36 40 44 47 54 46 37 40 42 28 25 26 26 30 34 36 37 37
16 16 16 17 17 18 17 19 23 26 28 31 33 34 37 41 46 49 40 37 44 35 28 25 26 28 31 33 35 37 38 38

GFSFLT1_700_spd_048.txt.gz
Wind_Speed
11 12 13 15 15 16 15 14 15 14 12 10 10 11 8 9 10 11 13 13 15 17 17 17 16 15 17 19 24 27 31 35
13 14 15 16 16 16 15 12 11 9 6 4 3 3 7 9 10 12 13 14 17 18 17 18 17 18 21 24 28 32 35 38
14 13 13 13 13 12 11 11 9 8 6 5 6 8 9 11 12 12 13 16 18 19 19 20 21 22 24 28 31 35 40 42
14 12 10 11 11 10 9 8 8 8 8 10 9 11 12 12 12 12 15 18 19 20 21 23 25 26 28 32 34 38 40 41
13 10 10 5 5 9 11 13 12 13 13 14 15 14 14 14 16 16 18 19 21 21 22 25 26 28 32 35 38 43 43 41
13 9 4 7 7 6 7 9 12 14 14 15 18 19 18 17 20 20 19 20 22 24 26 28 31 33 35 39 42 36 48 45
16 14 14 13 13 12 13 13 12 15 15 17 19 22 23 24 24 22 21 22 24 27 31 34 36 37 34 33 38 45 44 48
19 19 15 12 12 11 13 15 14 14 18 17 19 22 20 21 22 23 21 25 26 29 33 35 39 41 39 45 41 47 44 48
19 16 17 15 14 14 17 12 12 14 17 17 20 18 21 21 24 24 23 27 27 33 43 38 26 36 37 40 46 49 45 46
16 12 14 15 14 12 16 13 14 16 18 19 18 20 20 19 26 28 28 30 33 34 33 31 37 37 35 41 45 47 50 48
9 9 9 10 14 16 17 17 19 19 20 20 19 20 20 21 23 24 27 25 26 27 26 32 39 36 44 43 51 54 49 39
10 10 9 9 11 13 13 12 14 15 16 18 19 19 19 20 23 23 25 26 27 32 32 31 39 48 48 45 55 46 40 46
5 4 2 3 4 4 6 10 12 12 15 17 19 19 19 21 21 25 24 24 30 32 30 39 42 47 46 53 41 43 45 41
4 5 6 9 8 10 14 16 20 20 20 21 21 21 24 23 24 27 28 30 34 38 42 36 40 49 47 36 44 42 37 33
10 10 10 12 17 17 20 22 23 26 26 27 26 27 25 28 29 30 29 34 40 41 41 47 48 33 41 42 40 35 32 32
17 14 16 17 19 20 21 24 28 27 26 25 28 27 28 30 32 33 37 37 37 46 47 41 35 40 35 34 31 33 32 34
19 19 19 19 20 22 24 25 27 28 25 25 26 27 30 33 32 39 38 40 44 45 36 35 42 33 32 33 33 33 35 37
18 17 17 21 22 21 21 19 20 21 23 26 26 28 32 33 37 38 39 45 44 34 39 39 30 30 32 32 34 35 37 38
15 18 21 23 21 21 22 22 22 24 25 24 25 29 32 36 40 44 45 42 30 39 34 31 30 31 33 34 36 38 40 40

GFSFLT1_700_spd_051.txt.gz
Wind_Speed
11 12 12 14 14 15 15 16 16 16 16 16 17 16 16 16 15 14 13 12 13 13 14 14 13 12 14 15 17 21 24 26
13 15 14 13 14 14 14 13 13 13 11 10 10 10 12 12 15 13 12 12 14 15 15 15 15 16 18 19 21 24 26 30
15 16 16 15 15 15 15 14 13 13 11 10 10 10 11 13 15 13 12 12 15 16 17 17 18 20 22 22 25 27 30 34
12 13 15 15 14 13 13 12 12 13 12 13 11 11 9 11 12 13 15 17 18 18 18 19 21 23 23 25 28 30 32 34
16 13 11 9 11 13 13 13 13 13 14 14 13 13 12 12 14 17 20 22 19 19 21 21 23 24 27 29 31 33 32 35
17 15 13 11 12 11 12 12 14 15 15 17 18 17 17 16 19 22 24 24 21 21 22 25 27 29 30 32 35 35 37 39
20 18 16 14 16 15 14 12 13 16 18 18 19 19 18 21 23 24 26 26 24 24 25 28 29 29 34 38 39 35 36 36
20 21 20 18 17 15 16 13 15 15 16 20 20 21 19 17 22 22 25 25 25 26 27 27 27 33 34 28 31 41 41 39
19 18 19 19 16 16 13 15 14 15 16 17 17 25 22 19 19 22 24 24 25 21 23 28 32 30 34 33 32 34 41 44
18 19 18 16 16 17 13 14 15 17 16 20 20 20 20 22 23 23 22 24 25 21 23 22 27 30 32 33 37 42 43 43
13 17 17 18 17 18 19 17 19 19 19 20 21 20 21 20 22 22 20 22 26 29 22 23 29 34 33 33 38 41 40 37
9 13 13 16 18 21 21 20 19 17 19 20 21 21 20 21 21 22 22 26 21 26 25 29 34 31 38 36 39 37 37 37
3 7 8 6 6 8 9 9 8 10 14 18 20 20 20 20 22 23 19 21 24 28 32 30 42 33 34 44 38 36 35 34
5 5 5 5 6 6 8 11 13 14 17 21 22 23 25 22 23 24 23 24 30 32 32 33 42 35 35 38 34 33 31 30
13 10 10 10 10 12 16 17 17 19 22 24 25 26 25 24 26 29 26 27 30 34 37 32 35 43 33 34 33 31 30 30
19 16 16 15 17 18 19 20 22 24 27 28 27 27 27 28 28 31 28 29 36 35 46 38 33 34 35 32 31 30 31 32
22 21 21 21 22 23 23 23 25 26 28 28 28 26 26 28 27 26 31 36 31 39 41 36 29 35 34 32 32 32 33 35
23 23 22 21 21 20 22 23 24 24 23 23 25 28 28 26 29 30 35 36 39 41 33 34 37 32 31 31 32 36 37 38
21 18 18 18 20 22 23 23 23 23 24 27 29 29 28 26 32 36 31 36 35 31 37 36 31 30 29 33 35 38 41 42

GFSFLT1_700_spd_054.txt.gz
Wind_Speed
8 10 13 14 13 14 17 17 19 20 21 21 22 21 22 22 21 17 17 18 16 15 15 14 14 13 15 15 15 16 19 21
13 12 13 14 15 15 15 16 17 17 17 17 16 16 17 18 19 20 19 19 18 17 16 17 17 18 18 17 18 19 21 22
15 16 16 16 15 15 16 15 15 15 14 14 14 14 14 16 18 17 22 20 18 17 18 19 21 21 20 20 21 22 24 23
17 17 16 17 18 17 16 15 15 15 15 15 15 16 16 16 18 20 22 21 20 20 23 21 21 22 22 22 24 24 26 27
17 18 17 16 16 18 19 19 18 17 17 17 17 18 16 14 16 19 20 21 23 23 26 23 23 25 25 25 26 26 28 33
17 16 15 15 18 18 18 18 18 18 19 19 19 20 19 21 20 22 22 24 25 27 26 26 25 26 26 26 27 29 36 38
20 17 18 19 18 18 18 18 17 17 18 19 18 20 21 23 23 25 25 27 27 28 31 28 27 26 25 25 30 33 27 35
25 26 23 21 21 21 20 19 18 16 14 16 19 21 21 23 25 25 28 26 27 29 26 24 24 27 26 32 30 32 30 34
27 29 27 25 22 21 20 18 18 18 16 17 21 21 22 25 28 28 24 26 32 21 23 29 27 24 28 29 29 31 32 27
24 26 29 29 27 23 21 20 20 19 18 20 22 23 25 25 27 28 30 30 28 27 28 31 22 21 24 26 38 38 35 27
22 28 28 28 27 26 24 23 24 23 25 23 22 23 24 28 29 27 27 29 34 26 29 30 31 27 30 35 31 37 38 39
15 20 25 29 27 27 25 25 26 27 25 25 25 27 26 26 27 29 36 35 26 27 31 27 28 24 34 47 39 35 35 36
9 14 17 21 21 26 26 27 27 25 25 22 21 22 23 25 25 25 26 26 19 23 24 26 25 34 37 32 41 37 32 30
6 9 11 11 11 13 15 17 19 18 17 19 20 23 24 25 26 26 29 25 28 31 28 25 30 30 31 31 36 34 32 32
12 14 13 12 12 14 15 15 16 18 21 22 24 27 28 28 28 27 27 29 29 29 25 31 35 33 37 37 35 35 36 33
18 19 19 18 18 18 19 19 19 22 24 26 28 30 31 30 29 28 29 28 31 33 31 32 33 37 34 33 36 39 33 32
18 22 24 22 22 22 23 23 25 27 27 29 30 30 31 30 28 27 31 31 30 37 34 32 33 30 33 36 33 32 32 34
18 20 26 27 26 26 23 22 23 25 26 27 27 27 28 29 32 32 27 29 31 29 32 33 31 34 32 31 31 33 36 38
24 24 24 22 20 19 20 22 24 25 25 24 26 28 29 30 31 30 30 30 22 32 28 31 32 30 29 30 33 36 40 42

GFSFLT1_700_spd_057.txt.gz
Wind_Speed
4 9 8 13 15 14 15 16 20 21 22 24 26 25 24 25 22 20 19 20 22 20 19 19 17 16 14 16 17 17 18 18
8 9 11 13 14 13 12 13 15 17 19 19 19 20 21 21 21 21 20 18 20 21 21 22 20 20 19 18 21 21 20 20
12 12 13 13 14 15 15 15 14 14 16 17 18 19 19 18 19 19 19 21 24 24 24 24 23 25 22 22 22 24 24 22
16 17 16 16 16 16 15 13 13 13 14 15 15 16 17 18 19 19 21 20 25 29 26 27 25 28 25 23 24 25 25 28
13 16 17 17 16 16 16 16 17 17 17 18 17 16 16 15 16 18 19 23 28 27 23 32 27 28 30 26 27 26 27 33
14 15 15 15 18 18 18 18 18 18 18 18 17 18 17 19 21 21 21 24 27 27 27 27 31 30 30 29 27 28 29 29
19 17 18 18 19 21 21 21 20 20 19 18 18 18 19 21 25 22 25 28 29 31 30 30 28 32 35 32 30 29 28 34
24 25 23 23 23 21 20 21 20 19 18 18 17 18 19 20 25 21 26 28 30 29 33 34 30 39 35 28 30 28 32 31
27 28 26 25 24 23 23 21 20 20 21 21 19 19 19 21 25 28 29 29 32 30 32 35 41 35 30 26 28 25 25 32
24 28 29 29 28 27 25 24 22 23 21 25 27 16 20 21 25 28 29 30 31 32 33 37 40 35 24 25 29 23 34 31
16 23 28 28 28 30 29 27 25 25 24 24 23 22 24 24 24 26 28 30 33 32 42 40 36 28 33 32 24 30 31 40
13 14 24 26 26 27 32 29 28 28 28 27 27 27 26 28 30 29 29 31 31 34 33 31 29 30 33 30 34 33 33 44
7 13 16 19 27 31 29 26 27 26 26 28 31 28 27 28 28 27 27 29 29 31 31 26 24 31 31 25 36 38 38 36
7 9 15 17 17 18 20 22 23 24 27 31 26 23 23 25 26 28 28 29 31 32 31 29 28 34 39 33 33 37 35 42
8 11 12 14 15 17 19 20 22 25 23 21 23 24 25 27 30 31 31 31 30 31 31 31 36 33 33 38 40 41 38 38
14 13 19 20 20 22 17 20 21 21 21 21 23 25 28 31 33 34 32 33 32 32 32 34 32 35 36 33 37 38 38 40
22 22 27 26 27 26 25 22 23 25 24 25 29 30 32 33 32 32 30 30 29 33 33 32 31 33 35 34 36 38 37 36
22 27 27 27 30 29 27 28 27 29 30 28 28 29 28 28 28 30 31 34 34 33 35 33 31 33 32 34 35 36 35 36
27 24 24 25 28 31 31 28 25 24 25 27 28 28 27 29 31 32 33 35 34 31 30 29 30 31 31 32 33 35 37 39

GFSFLT1_700_spd_060.txt.gz
Wind_Speed
8 4 6 10 18 22 24 26 30 32 38 37 35 27 33 26 25 22 20 20 21 18 17 16 18 18 16 17 15 15 19 18
4 5 5 6 8 11 15 17 20 22 23 22 25 24 23 23 23 24 23 19 21 24 20 20 21 20 23 20 19 19 22 23
9 6 5 8 8 9 12 13 14 16 17 18 17 17 18 19 20 20 19 19 19 15 16 22 25 24 27 23 24 24 23 24
11 11 9 9 12 11 11 12 14 16 17 17 18 20 21 20 19 19 19 18 21 17 17 22 31 30 30 28 25 28 25 29
9 13 12 10 10 12 12 13 13 13 12 14 16 15 15 14 16 17 17 17 19 23 24 27 32 28 29 32 28 28 30 30
9 11 12 14 14 13 14 15 14 12 13 13 13 15 13 14 15 16 16 13 18 22 25 26 29 30 31 31 32 27 35 29
14 13 16 16 17 17 16 14 13 13 14 15 16 19 18 17 17 19 19 16 22 24 28 27 29 32 33 31 33 38 42 34
20 19 21 20 20 20 19 18 17 17 17 18 17 17 19 19 19 25 22 18 23 22 26 27 28 32 32 37 35 37 39 25
26 25 25 25 24 22 21 20 20 21 21 23 23 19 19 22 25 22 22 25 23 27 27 26 30 31 33 41 46 39 34 28
24 27 28 27 25 26 25 23 22 22 19 22 24 28 24 15 19 20 23 24 28 28 29 30 31 29 38 33 32 24 24 27
22 24 29 29 28 26 26 26 26 25 26 27 26 26 22 21 23 22 22 24 26 28 29 30 29 32 30 23 25 29 28 30
18 23 24 29 30 29 28 29 30 30 29 31 30 29 22 24 22 24 26 26 29 29 28 29 30 32 24 28 23 27 32 36
7 9 19 23 28 28 31 29 31 33 30 32 30 29 23 23 21 24 26 26 28 27 29 30 30 27 31 24 28 31 31 36
10 10 11 19 27 26 28 26 33 30 28 27 27 21 23 22 23 22 24 27 29 30 29 29 30 30 31 32 31 34 34 36
11 11 12 14 19 29 34 36 30 25 25 24 21 22 21 21 22 24 26 29 31 31 30 29 32 28 32 34 33 35 39 39
13 16 14 15 18 20 20 20 19 17 18 20 19 21 21 23 25 28 31 33 33 33 32 34 32 34 33 34 36 37 39 35
17 17 21 21 22 22 22 23 22 23 22 22 22 24 27 28 30 32 33 33 33 32 31 32 34 35 37 34 33 35 33 33
18 21 24 29 29 24 25 28 27 25 25 25 28 30 32 32 32 33 32 31 31 32 33 34 35 34 32 29 31 32 32 32
23 28 31 31 31 32 27 31 30 30 31 32 32 28 28 30 30 29 29 30 32 33 33 32 31 31 27 26 28 30 33 35

GFSFLT1_700_spd_063.txt.gz
Wind_Speed
3 6 6 9 16 20 18 16 18 17 22 22 23 24 31 33 36 37 33 30 26 19 16 15 14 13 13 14 15 17 18 17
4 5 7 7 11 14 18 22 28 31 29 30 32 33 36 37 35 29 27 25 21 18 17 18 18 14 15 18 20 20 22 21
4 8 9 9 10 12 12 15 19 24 25 24 22 25 25 24 24 24 24 22 18 18 13 15 15 15 17 21 23 24 24 25
2 8 8 8 10 11 14 15 15 18 21 20 20 21 21 21 21 20 20 19 19 17 17 16 13 18 14 18 24 28 30 30
6 7 8 8 10 11 11 11 14 16 16 18 17 15 15 13 14 16 17 19 18 18 19 22 20 21 24 24 23 24 34 32
8 8 10 10 9 9 10 10 11 12 12 13 12 16 15 14 15 16 17 15 17 20 20 18 20 21 19 22 25 28 34 32
10 10 11 14 15 14 13 13 12 12 13 13 11 11 13 14 15 16 14 13 16 22 20 20 22 25 27 29 29 30 33 31
14 15 17 17 17 17 17 16 14 14 16 14 13 13 12 12 14 15 16 17 13 14 17 20 22 24 26 28 29 29 31 32
16 11 15 19 19 19 20 19 19 20 20 18 17 15 14 13 13 21 17 17 15 16 20 19 23 22 23 24 25 30 27 26
18 17 17 17 19 25 24 22 23 24 22 21 20 18 18 13 22 23 27 23 20 13 16 21 23 24 23 23 24 27 30 20
22 24 21 20 19 18 22 27 27 25 25 25 24 24 23 25 22 27 27 32 15 17 18 22 21 22 23 26 29 23 25 24
15 19 23 27 24 24 22 21 28 29 29 30 30 30 25 31 31 28 10 13 12 17 21 22 22 24 24 26 21 26 27 27
15 17 19 28 30 29 28 27 25 27 29 31 36 32 24 30 31 14 19 16 16 20 21 22 24 25 27 25 31 27 26 30
14 13 23 27 27 28 32 34 28 34 35 24 23 27 16 18 18 14 17 17 17 20 23 27 28 26 26 28 24 25 31 30
14 14 16 18 29 26 33 33 25 15 15 20 19 20 18 18 17 16 18 20 23 26 29 31 30 30 31 26 28 33 33 34
19 20 14 16 17 22 30 31 24 19 20 19 18 18 18 18 18 20 23 26 28 30 31 30 31 26 31 25 35 33 34 35
21 22 22 18 16 18 20 20 23 23 22 20 20 20 21 21 22 25 28 30 30 30 31 30 29 29 30 32 33 34 31 28
23 22 26 26 23 22 24 23 24 24 24 25 26 25 25 25 28 30 31 30 31 30 29 30 30 30 31 30 29 27 26 27
24 26 28 28 29 29 23 23 28 30 31 30 28 28 28 31 32 28 30 30 29 28 29 31 31 30 28 27 25 25 25 26

GFSFLT1_700_spd_066.txt.gz
Wind_Speed
2 1 3 4 10 7 15 17 14 15 19 21 27 32 39 39 38 43 38 38 34 28 23 24 19 16 10 8 10 10 12 14
4 3 1 1 6 13 14 18 20 20 17 23 32 33 27 23 29 32 41 36 35 28 25 22 18 12 11 11 12 13 15 20
8 7 6 3 4 10 15 20 18 19 20 21 26 23 25 29 34 39 41 35 31 28 24 21 17 15 16 13 13 15 17 20
8 9 9 7 6 8 12 16 18 22 23 23 25 27 31 34 37 36 34 31 31 28 22 9 12 8 14 13 11 15 15 21
8 13 11 11 10 9 12 13 14 16 19 22 22 19 20 20 26 28 28 28 25 22 21 21 19 15 13 15 19 18 17 21
6 10 11 13 14 11 12 14 15 15 15 17 18 18 17 17 21 23 23 24 24 22 20 19 17 15 14 19 21 22 24 24
13 11 16 17 16 18 16 15 13 12 13 14 16 17 20 21 23 22 22 21 19 20 21 19 21 18 20 22 24 25 27 27
15 18 21 23 22 21 20 19 18 16 16 16 16 16 16 17 19 19 18 15 17 18 16 22 24 25 21 19 21 23 24 28
15 16 16 19 20 21 21 21 20 20 19 19 18 17 18 16 16 16 16 17 17 19 19 20 22 17 21 22 22 22 23 28
22 16 15 17 18 20 23 21 20 22 21 21 20 20 20 18 17 19 18 18 19 17 24 22 19 20 22 24 22 20 25 24
24 23 20 19 19 15 15 20 25 22 23 23 22 23 23 23 24 22 25 25 24 26 19 17 17 20 20 22 23 24 27 20
24 27 24 23 23 22 19 19 20 22 24 25 26 27 28 28 33 33 34 41 20 13 17 19 19 22 24 23 23 26 27 25
19 22 23 23 26 28 29 27 25 23 22 22 25 29 29 29 35 37 32 12 12 17 18 18 20 24 26 25 27 30 28 31
18 18 21 26 23 24 29 31 31 30 31 19 31 34 33 29 19 20 10 10 13 16 19 21 24 25 27 27 28 28 30 27
20 19 20 19 21 23 26 25 28 26 29 24 18 12 16 21 17 15 14 16 18 19 20 22 25 28 30 32 27 33 30 30
22 21 20 19 21 17 17 21 22 21 22 23 18 15 15 16 20 17 17 19 21 21 23 26 29 30 29 28 28 33 25 34
28 24 25 24 21 18 18 17 20 21 25 26 23 19 16 19 20 19 20 21 22 25 28 28 29 28 27 26 25 30 34 35
27 27 25 22 23 20 21 20 21 25 25 26 24 22 22 24 23 24 24 24 26 29 28 30 29 28 26 26 28 30 30 29
27 27 24 24 25 26 25 26 25 23 25 26 27 27 28 28 27 26 28 30 30 30 31 29 27 26 26 27 26 27 27 27

GFSFLT1_700_spd_069.txt.gz
Wind_Speed
9 5 4 6 11 13 19 19 17 17 15 18 19 33 40 42 41 43 41 37 42 32 27 29 19 18 15 11 13 10 7 8
9 6 4 5 9 12 18 17 16 18 18 23 28 24 40 45 45 38 38 36 37 31 30 25 23 19 15 14 15 11 10 13
9 7 5 3 5 8 13 17 19 20 18 19 21 27 35 40 39 42 44 44 43 34 33 27 24 20 15 19 14 13 15 16
7 6 6 2 3 5 9 16 18 13 11 16 26 27 32 31 27 39 40 43 39 38 34 28 23 19 19 22 17 14 12 17
6 6 5 4 4 5 6 9 15 16 17 19 24 27 30 30 27 34 32 39 37 37 31 26 19 21 21 15 17 19 21 20
7 5 8 9 7 5 6 7 9 12 12 13 13 16 19 22 26 30 34 36 36 32 29 25 25 19 24 23 23 22 23 25
12 10 14 14 12 11 9 8 8 9 10 11 12 14 17 19 20 21 24 27 29 30 28 26 26 28 26 23 23 25 27 27
12 18 16 16 15 14 13 12 11 11 10 10 10 13 17 18 20 22 25 26 26 26 25 28 29 28 28 30 28 25 24 28
14 14 15 16 16 18 17 16 15 13 13 11 11 13 15 17 19 21 23 24 24 25 26 25 26 28 32 32 20 26 26 27
18 15 13 15 15 16 18 19 20 17 15 14 15 15 15 17 18 19 20 25 26 27 28 29 31 28 32 19 22 25 27 28
20 22 20 15 14 18 19 22 25 24 22 22 21 21 22 23 24 24 28 30 30 31 33 34 32 29 26 20 25 25 27 29
15 18 19 20 20 22 24 21 21 29 31 30 28 27 27 27 27 29 32 34 33 35 48 38 25 24 27 28 27 27 29 30
13 11 16 22 26 27 29 29 25 23 23 27 31 31 31 34 31 35 33 33 19 13 1 20 24 31 29 31 29 31 32 29
14 16 15 11 17 21 22 25 28 28 24 24 26 23 16 30 41 36 29 20 15 10 15 20 25 27 30 31 30 33 34 36
18 18 17 15 14 16 18 18 21 23 25 23 26 25 20 24 30 33 21 24 30 25 22 24 26 27 29 32 36 37 38 34
20 22 18 18 15 14 15 16 14 16 21 22 22 21 18 19 17 16 18 21 24 26 25 26 25 29 31 33 36 39 39 31
24 24 25 23 20 16 16 18 17 15 14 18 20 22 20 18 18 18 21 23 24 26 25 25 27 31 33 35 36 37 34 42
29 26 28 25 24 15 15 15 16 17 16 20 23 24 23 23 23 22 24 23 25 27 28 29 32 35 36 35 35 34 34 30
30 21 22 25 24 21 20 20 21 21 20 19 22 25 27 26 26 28 29 28 30 30 31 33 33 32 31 31 31 31 33 35

GFSFLT1_700_spd_072.txt.gz
Wind_Speed
12 10 6 8 13 14 20 23 13 23 15 16 20 31 32 37 36 38 35 37 39 38 33 25 19 19 17 14 8 9 10 8
11 9 6 7 11 15 18 23 20 20 16 14 21 21 26 30 37 33 37 42 40 39 32 26 23 18 18 14 11 10 13 13
8 7 3 4 8 11 5 17 20 18 23 16 21 30 38 38 38 38 37 39 39 40 30 25 23 21 18 14 13 14 16 18
7 5 3 2 3 5 6 6 11 16 20 16 21 32 28 35 39 40 39 35 30 34 34 26 23 23 21 17 16 18 22 17
4 4 3 3 2 4 6 6 7 7 6 13 24 25 23 25 31 25 29 27 29 29 27 27 26 27 23 21 20 23 25 20
6 3 6 7 6 5 7 9 10 10 10 9 11 18 26 25 23 21 31 30 34 37 33 34 30 26 27 29 24 22 20 25
13 10 10 10 8 8 8 10 11 11 11 13 14 15 16 19 20 22 26 28 32 35 35 35 30 30 22 21 27 26 27 30
16 14 15 11 9 8 9 9 10 11 12 13 14 14 16 16 16 17 21 24 27 31 35 32 30 30 28 29 33 33 34 34
17 15 13 14 10 9 10 10 11 10 12 13 15 17 18 20 22 23 24 25 25 25 27 27 30 33 33 32 34 38 37 37
16 15 12 10 10 10 12 13 14 14 14 14 16 17 18 19 20 22 24 25 27 28 31 32 34 37 38 33 35 38 47 23
17 18 17 14 12 12 12 14 19 20 19 18 18 18 19 19 21 23 25 23 26 30 32 36 37 38 37 38 35 29 20 26
12 16 18 19 19 18 17 19 17 19 25 25 24 23 23 23 24 26 27 26 29 32 34 38 40 37 44 45 39 26 22 28
11 12 10 13 18 20 23 23 24 20 20 20 24 27 28 28 30 29 29 31 33 33 34 27 24 32 43 42 35 34 34 35
12 11 9 10 8 13 20 21 20 20 25 25 27 26 31 28 18 32 40 36 36 35 23 24 19 15 6 18 32 36 36 35
17 15 13 11 9 6 9 11 15 18 18 23 25 24 21 23 24 23 28 30 42 44 20 22 22 22 27 31 34 33 35 39
22 22 19 15 13 11 9 8 10 12 14 19 22 22 22 25 24 22 22 24 26 20 33 37 31 30 32 32 35 36 37 37
24 22 21 20 16 17 15 9 8 10 12 12 15 20 22 24 23 21 21 21 22 22 23 28 32 31 31 33 36 36 39 39
25 27 29 24 21 19 21 15 11 11 11 12 14 16 21 24 25 23 22 23 25 26 27 29 31 33 34 35 37 37 37 41
31 32 30 27 20 20 23 22 17 17 17 16 20 22 21 23 25 27 27 27 28 29 31 33 33 35 38 39 39 39 37 40

GFSFLT1_700_spd_075.txt.gz
Wind_Speed
10 9 8 8 11 15 13 14 17 15 17 21 24 38 34 34 43 46 45 46 44 40 36 32 31 25 19 16 13 11 10 8
7 7 6 6 10 14 3 19 17 16 18 24 19 27 34 38 40 50 52 51 50 43 40 35 33 24 16 17 15 13 12 12
7 6 5 3 7 11 2 20 14 18 18 13 19 26 34 36 40 42 49 47 47 44 43 37 32 24 19 16 15 14 14 12
9 5 4 2 3 6 6 14 16 18 20 20 20 25 24 35 39 41 36 37 42 42 39 36 30 25 18 18 19 19 17 17
9 5 5 5 2 2 4 6 6 13 19 26 22 26 27 30 35 37 36 36 42 38 41 39 33 28 22 19 22 21 21 21
12 7 7 6 6 6 6 7 5 6 10 13 23 21 27 33 36 36 37 34 28 26 35 35 30 27 20 23 25 24 25 26
12 13 10 9 8 8 8 9 8 5 5 9 11 24 31 32 28 28 24 27 27 27 28 30 29 24 25 23 26 27 27 31
15 16 14 9 8 9 11 11 10 9 7 8 10 14 19 24 24 24 24 25 31 30 26 25 25 28 31 28 33 27 30 34
13 15 15 11 9 10 10 12 12 11 11 9 10 11 12 15 17 19 21 22 23 25 28 32 34 33 32 34 37 33 36 39
17 17 16 12 11 10 9 10 12 13 14 14 12 13 14 15 17 20 21 23 24 28 31 31 33 37 39 40 40 40 40 41
15 18 17 14 13 12 12 12 13 15 16 16 16 16 16 17 18 18 20 22 25 28 30 32 35 38 40 42 43 42 43 43
14 18 18 17 17 17 16 15 17 16 19 19 19 19 19 21 22 22 23 25 27 29 29 32 37 40 42 45 46 46 46 45
12 15 18 19 21 22 22 22 22 19 18 16 18 21 24 23 21 22 23 28 30 31 34 37 38 41 44 39 39 45 51 51
14 15 16 13 12 15 22 26 25 23 22 21 24 23 24 25 25 32 30 29 32 33 38 38 39 34 34 32 34 32 28 45
17 17 16 12 10 11 12 16 19 21 22 21 25 28 27 25 26 28 30 28 27 36 37 39 45 41 33 28 26 22 15 20
15 20 20 16 15 13 12 8 11 15 17 17 18 23 27 25 29 26 29 35 28 28 31 37 44 35 32 30 34 36 34 36
20 24 21 19 19 17 18 15 12 14 15 14 14 17 22 23 28 27 29 28 29 30 30 31 30 35 34 37 38 40 39 38
21 27 28 23 23 20 19 19 18 15 12 12 16 18 17 18 22 26 30 30 27 28 30 30 30 28 32 38 41 40 41 40
26 28 33 33 31 26 25 24 24 21 16 16 16 19 20 21 21 25 28 30 29 30 31 32 34 35 35 36 38 41 43 45

GFSFLT1_700_spd_078.txt.gz
Wind_Speed
12 12 12 11 12 15 19 19 17 16 18 12 19 23 28 30 32 27 32 45 51 46 44 36 32 29 31 28 22 17 15 14
12 12 13 12 10 13 18 5 13 12 17 15 17 23 30 28 24 27 35 38 35 40 44 41 30 28 28 31 25 18 15 14
12 11 14 11 8 10 10 9 12 13 13 17 19 27 31 29 24 30 28 33 37 40 35 36 34 32 36 29 24 19 16 17
12 10 12 9 6 5 2 8 10 16 13 19 22 28 32 33 31 33 39 41 41 41 42 43 41 38 33 27 24 22 18 18
12 10 10 10 7 3 1 5 9 13 14 20 18 25 35 32 33 32 34 44 45 47 35 36 37 39 33 27 21 19 19 18
12 12 11 11 8 6 4 5 7 8 12 16 20 24 26 33 34 37 34 33 37 48 44 41 40 36 34 29 27 26 21 20
16 17 13 10 10 8 7 6 6 6 7 12 21 25 25 32 35 41 34 34 35 37 40 45 45 42 39 32 29 24 23 26
19 17 12 11 10 10 10 8 7 7 7 7 7 19 28 27 32 33 39 36 33 29 28 31 40 42 39 35 30 27 24 27
22 21 17 14 13 14 13 11 10 8 7 6 6 7 13 23 28 29 27 30 27 26 28 26 32 34 37 36 33 31 28 32
21 21 21 18 17 15 14 14 14 12 10 9 7 7 9 11 17 23 22 22 22 26 28 27 32 33 34 36 35 34 37 37
18 22 25 21 19 19 18 17 17 15 15 13 12 11 10 11 12 13 14 15 18 21 22 25 28 30 33 35 37 39 41 40
15 18 25 25 22 21 21 20 19 19 19 18 18 16 16 17 17 16 17 19 21 24 26 27 29 30 33 36 38 41 43 44
12 17 20 21 22 22 21 21 20 19 18 19 22 22 23 23 22 20 21 22 24 25 28 30 32 34 36 39 39 40 45 50
10 16 20 23 24 25 26 26 25 26 26 24 23 26 28 30 28 27 28 29 28 30 31 32 35 37 39 40 39 41 43 40
12 16 19 22 22 19 19 23 27 30 31 30 28 28 29 29 29 32 34 33 33 33 32 31 37 38 42 42 43 43 45 39
18 17 20 22 23 22 19 21 23 26 27 29 30 28 28 32 34 32 33 35 32 33 33 32 34 41 43 43 49 53 49 40
21 21 22 24 26 24 23 21 20 17 21 23 24 26 27 29 36 36 34 35 33 37 42 41 39 39 38 36 43 46 42 44
21 24 24 27 27 25 28 26 26 24 20 20 24 25 24 24 27 31 34 36 36 38 39 40 42 40 38 39 35 39 42 43
27 28 27 26 28 33 29 30 29 28 28 26 26 24 21 21 23 25 26 30 34 37 40 40 40 39 39 39 37 39 41 43

GFSFLT1_700_spd_081.txt.gz
Wind_Speed
16 15 15 17 18 16 17 21 23 18 13 10 14 12 14 26 25 26 39 31 26 39 46 38 38 41 39 36 28 22 16 18
17 16 14 16 17 15 16 20 9 11 14 18 14 24 20 20 23 28 23 22 38 41 40 51 54 45 36 32 22 25 23 22
19 16 14 15 14 12 14 10 4 11 10 14 14 16 18 27 24 26 20 20 43 47 49 45 37 31 37 30 27 27 21 20
19 16 13 13 12 10 10 7 6 9 12 15 15 15 20 27 28 21 16 18 27 40 42 42 44 38 34 33 31 29 25 22
20 16 13 11 11 10 8 6 7 9 12 12 15 15 19 26 25 23 15 18 24 33 36 41 38 38 34 30 35 33 31 26
19 16 15 13 9 10 9 6 6 8 11 12 17 16 19 27 24 24 24 21 26 31 41 44 44 39 36 32 42 38 32 31
19 18 18 15 10 9 9 7 6 6 7 10 16 17 22 26 28 23 23 27 24 31 42 45 41 42 41 41 36 35 33 32
22 23 18 16 12 10 11 10 8 7 7 6 8 14 20 23 23 28 26 28 29 27 35 41 42 39 37 36 39 37 34 32
22 25 22 15 15 14 14 13 11 9 8 6 6 7 14 21 24 29 25 21 26 28 26 27 40 44 38 40 40 40 36 35
19 28 25 21 20 17 16 16 15 12 10 9 7 7 6 10 21 23 24 24 26 30 25 30 30 34 43 40 44 42 39 38
18 25 27 25 23 20 20 20 18 16 14 12 10 9 8 8 11 12 16 20 22 26 29 29 30 31 32 34 37 43 40 40
14 20 25 27 27 24 24 23 22 20 19 17 16 14 13 13 12 12 12 16 21 23 24 27 28 30 29 31 34 37 39 40
8 14 19 22 29 25 26 25 24 22 21 20 20 20 19 18 17 16 17 17 19 21 22 24 25 25 28 30 32 34 36 38
5 11 16 21 26 27 25 25 23 22 22 22 22 23 25 24 24 23 23 24 24 25 26 26 26 27 30 31 33 35 37 38
9 10 13 19 24 27 28 27 28 28 29 29 29 28 26 26 29 30 30 30 31 31 31 29 29 30 33 35 37 38 39 40
13 13 15 18 21 27 30 30 29 31 34 36 36 35 34 32 34 34 34 35 36 35 35 35 34 35 34 35 36 38 39 41
18 17 16 20 24 24 28 28 27 28 29 30 31 31 34 35 35 35 36 38 38 38 39 39 38 39 39 38 36 37 38 41
20 26 17 18 22 25 26 29 30 30 28 25 24 27 30 30 32 34 35 38 40 40 39 41 40 41 43 44 42 42 43 43
28 25 25 27 25 27 28 32 31 32 34 33 30 28 27 29 31 32 31 32 35 37 38 38 42 42 42 42 41 42 45 48

GFSFLT1_700_spd_084.txt.gz
Wind_Speed
21 20 17 17 19 18 18 17 22 24 22 18 13 16 16 15 20 21 28 23 40 47 39 42 42 40 36 33 34 32 29 25
21 25 19 18 19 18 15 18 20 14 3 6 8 7 8 4 7 19 29 37 46 42 40 40 45 45 37 35 36 31 30 23
23 28 20 17 18 16 12 16 15 10 6 8 7 8 12 8 20 21 14 20 23 34 28 49 45 42 43 44 42 32 24 29
26 29 18 16 15 14 12 12 13 9 6 7 8 11 15 16 19 19 17 20 16 17 30 48 45 41 40 40 34 33 26 27
23 28 19 17 14 13 12 11 10 10 8 3 7 8 8 12 13 17 16 8 5 9 30 42 47 44 39 41 34 34 33 28
23 28 20 19 15 13 13 10 7 8 6 5 6 8 9 9 12 22 15 11 9 16 22 38 42 42 42 40 35 36 32 27
23 28 23 20 16 13 13 11 7 7 5 4 4 6 9 11 15 17 15 14 14 15 21 29 36 38 38 38 37 32 29 31
23 31 26 21 16 13 13 12 9 8 5 5 2 4 6 9 12 16 16 11 14 12 14 26 32 31 35 39 37 34 35 39
22 26 25 21 17 14 14 14 12 10 7 6 3 1 4 4 9 15 16 19 13 14 15 14 30 39 42 43 39 33 33 38
17 23 29 23 20 16 15 15 15 13 11 9 7 3 1 3 5 9 14 17 18 16 20 18 18 28 40 41 38 39 33 38
19 19 28 26 22 21 19 18 18 16 14 12 10 8 5 4 6 8 12 12 17 18 18 21 21 25 25 36 41 38 34 41
12 17 25 24 23 24 23 21 21 21 18 17 14 13 11 9 7 7 9 15 17 18 20 23 25 26 30 35 35 39 43 44
7 13 18 22 23 24 25 23 23 22 20 19 18 17 16 15 14 12 12 13 15 17 19 23 24 27 27 30 32 32 34 36
4 8 14 22 19 18 22 25 23 24 23 21 21 21 20 19 18 19 18 17 18 20 21 21 23 24 27 28 30 31 33 34
1 4 15 13 16 17 20 25 23 26 27 24 23 23 23 22 23 24 25 24 24 24 24 25 26 28 29 29 31 32 33 35
10 8 7 13 21 18 20 24 28 27 30 30 29 29 29 30 30 29 29 31 30 30 30 30 31 31 32 32 33 33 35 34
11 15 17 15 7 25 25 23 27 32 33 34 35 34 33 33 35 37 36 34 34 35 36 36 36 36 35 33 34 35 34 34
17 18 21 20 20 7 23 26 25 27 29 28 29 30 29 27 29 31 33 36 35 35 35 38 38 37 36 37 37 38 38 39
23 26 27 25 24 26 24 19 27 28 27 28 31 32 32 31 30 29 31 33 34 35 36 37 38 38 37 37 39 42 42 44

GFSFLT1_700_spd_087.txt.gz
Wind_Speed
23 22 23 23 17 16 15 14 15 17 20 18 13 14 19 26 25 29 31 32 34 32 39 36 40 35 40 40 39 37 33 31
27 24 24 18 19 16 16 14 14 15 14 11 6 5 8 13 18 21 21 25 29 35 46 48 34 31 42 41 39 37 35 31
29 28 26 18 17 16 15 13 14 12 10 9 8 8 8 13 15 16 17 19 29 29 42 44 43 39 41 40 37 38 38 33
32 32 26 21 17 15 15 12 14 10 8 6 7 3 4 9 11 16 7 4 21 43 43 40 34 43 42 42 40 41 37 35
28 32 27 22 18 16 15 13 12 9 6 4 3 5 5 7 9 8 9 7 17 21 24 36 26 42 48 44 41 37 33 36
28 27 25 24 20 17 15 14 11 8 4 3 4 4 8 7 15 18 16 13 16 16 22 29 33 43 45 48 47 42 42 32
31 31 26 28 23 18 15 13 11 7 4 2 2 3 4 5 16 24 21 14 11 11 19 24 27 45 44 42 33 34 37 34
30 32 31 30 21 16 14 13 10 7 5 3 1 2 1 4 12 17 21 17 14 11 10 12 20 26 34 37 37 39 39 36
27 29 26 25 22 18 14 13 10 9 6 4 2 2 3 1 7 20 18 13 10 9 10 12 19 25 31 36 40 43 39 38
24 25 21 22 22 18 13 13 12 11 9 7 3 1 2 2 2 10 17 19 18 14 16 16 17 29 34 39 40 42 40 41
20 19 21 15 12 18 17 16 13 13 12 11 7 5 3 2 1 2 7 12 18 19 18 22 18 19 29 34 36 38 38 39
8 22 17 15 17 16 18 19 17 15 15 14 12 9 7 6 5 5 5 8 8 11 16 21 23 23 22 29 27 33 42 35
5 10 13 17 14 14 15 19 22 19 16 16 15 14 12 11 9 8 10 11 13 13 14 16 17 21 26 29 31 32 38 45
8 1 10 15 16 13 14 15 20 23 18 18 18 17 16 14 13 13 13 13 14 16 18 19 20 20 22 23 27 30 32 35
4 6 6 9 8 10 10 11 13 22 20 19 19 20 20 19 19 19 18 18 19 19 19 20 21 22 23 24 25 25 27 28
8 4 1 2 14 17 15 13 12 15 24 21 20 22 23 24 25 24 25 25 25 24 25 25 25 26 27 27 28 29 30 31
16 17 17 15 7 12 19 17 18 18 16 20 29 28 28 29 31 32 32 32 33 32 31 29 31 31 29 29 30 31 32 34
19 19 19 22 25 16 16 22 25 22 19 17 19 25 31 31 29 28 28 29 32 33 34 36 33 33 32 33 33 35 36 36
16 18 21 23 21 23 17 16 28 28 28 24 22 23 25 27 33 30 29 29 30 32 32 34 35 32 32 33 35 39 40 40

GFSFLT1_700_spd_090.txt.gz
Wind_Speed
29 28 23 18 12 13 14 16 17 16 17 16 14 15 22 27 28 30 31 31 35 32 34 28 27 33 32 42 41 38 35 34
29 30 27 22 15 12 13 16 16 16 16 14 12 10 11 19 27 30 34 33 32 38 30 39 32 28 43 44 41 38 39 38
28 30 30 25 18 12 14 15 15 16 14 12 11 8 7 10 15 23 29 33 38 41 36 39 41 34 47 49 43 42 38 39
30 31 30 27 21 12 14 14 14 14 13 11 8 4 4 10 10 12 19 23 31 36 40 38 49 37 44 36 45 43 44 41
36 34 31 25 21 13 15 15 15 13 12 10 8 5 4 8 13 20 21 24 22 29 30 28 52 43 45 36 43 43 42 39
35 37 28 23 19 15 14 15 15 13 11 10 8 7 6 6 15 21 18 21 15 16 31 43 40 31 32 40 37 40 38 41
40 33 27 23 21 18 16 16 14 12 9 8 7 7 5 4 9 17 18 14 14 17 26 27 31 25 39 40 42 39 36 34
37 36 30 25 24 21 16 15 13 11 8 7 6 6 5 5 6 13 21 17 17 16 13 16 21 24 29 32 39 42 41 39
36 33 27 24 25 21 14 16 14 10 8 7 4 4 4 4 4 12 24 22 18 14 14 17 25 34 37 36 42 36 44 45
34 28 23 24 21 16 17 18 15 10 9 8 5 2 2 2 1 10 20 23 18 16 17 17 20 25 29 40 41 38 38 37
27 22 23 22 11 11 14 18 16 13 10 11 8 6 3 1 2 2 9 15 22 22 20 19 17 17 24 33 38 38 40 43
19 18 20 13 10 11 10 17 18 16 13 11 11 9 7 5 2 2 4 9 13 15 18 23 22 20 20 24 30 37 41 41
19 16 17 15 10 8 8 11 15 19 19 15 13 13 12 9 8 6 6 5 7 9 11 14 19 24 25 27 30 30 33 37
20 20 15 11 8 7 5 6 10 14 21 20 16 14 13 12 12 12 11 11 11 11 12 13 15 18 24 26 26 28 33 34
15 17 18 15 12 11 10 5 2 3 13 20 18 16 15 15 15 15 16 16 17 17 18 19 19 21 23 24 26 27 29 32
11 10 6 4 14 17 15 15 12 3 1 7 18 19 20 20 20 20 20 21 21 23 24 25 26 27 27 27 28 29 30 31
8 3 7 5 7 7 8 18 21 18 13 8 7 10 18 23 24 25 26 26 27 28 29 30 30 30 31 32 32 33 35 36
11 11 12 10 12 12 15 16 18 21 20 22 23 21 20 20 18 22 26 27 29 30 30 32 33 33 33 34 36 38 39 39
8 8 11 17 19 19 19 20 22 23 25 28 29 30 32 28 25 22 21 24 26 27 28 29 30 29 32 35 36 39 42 42

GFSFLT1_700_spd_093.txt.gz
Wind_Speed
32 31 32 25 21 18 13 14 16 17 17 17 19 21 21 24 26 27 30 27 27 28 29 23 28 22 26 21 34 36 34 30
28 33 31 28 24 25 13 13 15 16 17 18 19 18 18 17 21 29 26 32 31 35 28 29 34 21 31 29 33 39 38 36
31 31 27 29 19 25 16 13 13 15 16 17 16 16 14 14 15 24 32 33 32 35 38 29 32 32 35 39 38 41 40 38
24 25 26 27 19 21 16 13 13 15 15 16 15 13 12 13 13 12 24 34 37 36 41 33 39 34 42 40 38 43 44 44
26 27 29 27 20 21 20 14 13 14 15 15 14 12 11 13 13 14 19 25 33 35 42 40 39 31 32 40 40 45 43 43
26 26 30 31 27 22 22 14 13 14 13 13 12 12 10 12 14 14 16 24 27 33 35 41 37 44 38 52 44 48 50 43
25 27 30 30 32 26 25 17 13 14 12 12 11 11 9 9 12 17 20 21 22 25 25 30 29 35 45 46 44 44 41 52
32 31 35 37 29 27 24 18 13 14 12 10 9 10 9 8 9 15 21 21 22 22 27 30 18 27 42 45 39 35 41 40
34 33 29 32 26 24 24 16 14 15 12 11 8 7 8 6 6 9 19 21 15 14 9 16 20 20 28 28 28 30 32 35
30 27 28 28 22 19 19 16 14 16 13 12 9 7 7 6 4 3 15 18 17 14 12 12 16 17 22 22 37 29 34 41
23 28 27 24 21 18 14 17 16 16 15 12 11 9 6 6 5 2 7 15 19 19 19 18 18 16 19 27 28 33 32 43
19 23 24 21 21 16 14 14 16 17 15 12 12 11 10 6 5 2 2 8 13 17 15 18 18 17 19 26 31 42 46 40
20 22 21 23 18 17 12 11 10 13 17 16 13 14 13 11 8 6 4 3 7 12 15 15 19 21 22 24 25 27 34 42
20 21 25 25 21 17 14 14 12 11 14 18 19 16 16 14 12 11 10 8 8 9 10 11 15 18 20 19 20 24 28 31
23 27 28 30 25 21 18 16 14 12 14 15 20 20 18 17 16 16 15 14 14 15 15 15 16 18 18 20 22 23 25 27
16 18 24 24 22 19 15 15 14 10 8 12 17 23 23 22 21 20 21 22 21 22 22 22 22 23 23 24 25 26 28 30
13 14 14 12 10 14 12 12 14 10 13 15 15 14 19 21 22 23 24 25 26 27 28 29 29 29 28 29 32 33 34 35
7 2 4 1 5 8 11 13 16 19 19 24 24 20 20 19 20 19 20 23 26 28 31 32 33 33 34 35 36 39 41 42
2 1 2 3 7 10 12 13 15 18 20 21 23 27 27 30 29 29 26 25 26 25 25 21 23 27 34 37 39 41 45 45

GFSFLT1_700_spd_099.txt.gz
Wind_Speed
34 32 31 30 30 25 23 21 19 16 16 19 18 17 18 17 16 16 20 21 21 21 17 10 5 22 32 30 37 35 30 25
32 32 34 35 38 34 29 24 20 19 17 16 16 16 17 17 15 15 18 19 20 23 20 17 10 7 26 29 34 33 29 37
36 35 34 34 36 35 34 27 24 21 18 16 16 16 16 16 15 14 15 17 24 27 25 22 21 18 15 23 29 29 23 24
37 35 34 34 35 34 34 28 26 22 19 17 15 15 15 14 14 13 14 15 16 22 29 27 26 28 24 27 26 29 26 30
41 37 34 34 32 34 35 29 26 24 21 16 15 15 14 13 13 13 12 14 14 25 24 29 28 28 37 33 26 27 26 27
43 40 33 31 33 37 34 31 28 25 23 17 16 15 14 12 11 12 11 12 16 20 28 25 32 28 33 39 37 32 32 37
33 35 33 27 30 36 31 30 27 25 22 17 15 14 13 11 10 11 11 12 15 21 27 33 31 31 30 33 34 36 39 32
30 33 32 23 29 33 32 28 25 24 23 17 16 15 13 10 9 10 10 11 13 14 18 21 29 35 32 34 34 39 34 36
28 34 31 23 32 34 30 29 29 26 23 18 17 16 12 9 6 8 10 7 9 13 16 18 21 28 32 35 31 28 33 35
28 34 31 30 31 30 28 27 29 28 24 19 18 16 12 10 6 5 6 3 7 9 10 12 11 17 19 25 26 26 29 34
24 31 29 29 28 27 28 27 30 29 25 21 19 18 15 12 7 3 2 4 6 6 8 8 8 11 19 21 23 27 36 26
24 29 32 31 27 26 31 29 34 31 26 22 20 20 17 14 10 6 3 4 7 9 10 10 10 9 13 17 19 14 16 18
20 27 30 35 33 36 28 32 32 33 29 25 21 22 19 16 13 10 6 5 6 9 10 10 10 9 9 8 9 10 9 10
12 23 31 35 36 26 34 36 34 33 30 25 24 24 21 19 17 14 11 8 7 7 7 8 8 7 8 8 8 10 10 15
4 14 23 26 33 29 31 34 32 28 27 26 24 26 24 21 20 18 15 14 12 10 9 9 9 10 10 11 13 14 14 16
9 4 11 17 25 34 38 37 34 30 26 22 21 20 23 23 21 19 18 17 15 15 14 13 14 15 15 15 17 18 18 19
23 19 13 14 19 22 31 32 28 26 25 24 23 19 17 18 19 18 17 17 16 15 16 16 18 19 21 22 22 22 22 23
22 22 22 21 26 23 23 25 24 24 22 23 24 17 14 15 15 15 14 14 14 14 15 16 15 15 17 22 25 26 26 26
8 23 19 15 16 17 24 27 22 23 21 21 22 20 21 22 19 17 15 14 14 16 17 19 19 25 21 18 20 21 23 25

GFSFLT1_700_spd_102.txt.gz
Wind_Speed
30 37 37 37 37 36 31 27 25 23 21 17 16 16 16 14 16 20 20 20 22 22 23 20 20 13 19 35 37 37 35 39
33 32 39 40 38 39 35 32 28 25 24 18 15 15 16 14 16 19 19 18 19 25 23 19 16 8 14 25 32 42 35 40
37 39 39 41 42 41 41 35 33 29 26 22 17 17 18 14 16 18 18 17 14 18 22 23 18 13 11 25 25 43 40 43
37 41 40 43 43 42 43 39 36 35 29 26 21 18 18 15 16 18 16 16 15 18 25 25 25 18 11 12 21 37 39 36
34 41 43 43 42 40 43 37 38 37 33 28 22 17 18 14 16 18 15 15 15 17 20 29 27 23 25 19 16 19 23 28
31 34 44 47 38 42 43 38 38 38 35 29 24 18 18 15 15 17 16 13 15 17 20 23 28 28 26 28 24 26 29 30
24 32 37 42 43 43 40 38 37 37 34 30 26 20 19 15 15 16 16 14 15 18 19 25 25 32 28 27 30 33 29 30
19 22 29 35 42 39 37 38 37 36 33 30 28 22 19 16 15 15 16 14 14 17 18 20 27 26 31 30 30 36 40 36
17 19 25 33 37 37 35 37 38 36 32 31 29 24 20 16 15 15 15 13 13 14 16 20 23 32 33 26 27 30 31 31
18 18 23 32 36 34 34 36 36 34 34 33 30 25 20 17 16 15 15 11 9 12 15 16 19 24 28 34 34 34 36 32
16 14 21 31 33 32 33 34 34 37 35 32 32 26 22 19 16 15 14 10 10 13 13 11 13 16 19 21 24 29 29 31
16 17 22 30 30 30 32 32 29 34 34 34 33 28 23 21 18 16 13 10 11 12 13 11 10 8 11 15 18 20 24 29
19 16 27 32 33 30 30 30 36 33 33 37 35 29 25 23 21 19 15 12 9 11 11 10 9 9 9 11 13 18 21 15
14 14 21 33 34 29 26 35 33 35 38 41 37 30 25 25 23 22 18 14 11 9 9 9 8 8 8 9 9 12 13 15
14 10 14 28 36 36 37 35 35 33 42 42 36 31 26 27 25 24 21 19 16 13 13 13 12 11 11 10 9 9 9 9
9 13 9 20 30 38 44 40 34 37 40 39 37 30 27 27 27 25 24 22 20 18 17 15 14 13 12 11 11 11 11 12
8 17 18 13 17 26 27 33 37 39 40 37 30 25 24 21 23 26 25 23 22 21 19 18 18 18 16 16 17 16 17 18
4 20 28 22 21 21 22 24 27 32 32 32 29 30 28 26 24 26 25 24 23 22 21 20 21 22 20 19 19 20 20 21
8 7 19 22 28 29 26 25 22 25 26 27 27 27 30 35 26 17 18 24 23 23 21 21 23 19 16 17 18 18 19 19

GFSFLT1_700_spd_105.txt.gz
Wind_Speed
24 29 34 33 31 31 36 38 33 29 27 26 25 20 17 18 18 19 19 18 19 22 24 25 25 24 25 25 26 25 35 36
23 24 27 30 33 36 44 41 38 33 30 28 26 18 18 18 18 19 21 18 19 20 23 22 25 24 19 21 23 26 31 34
27 29 28 29 31 44 45 44 42 35 31 30 29 22 21 20 20 19 20 19 19 19 21 23 27 24 20 18 16 28 34 45
28 30 32 33 34 38 49 46 45 42 34 33 32 27 26 23 20 20 20 19 18 15 19 20 20 23 20 15 20 25 37 47
23 29 34 34 36 35 43 47 47 45 40 36 32 31 26 21 22 20 20 19 17 19 20 17 23 22 19 12 11 23 30 46
17 22 25 29 34 35 40 46 48 50 46 40 35 33 29 26 24 20 19 20 18 20 21 20 26 25 25 25 14 10 32 37
15 18 21 25 29 36 36 45 48 48 45 40 37 34 32 28 23 22 20 19 19 20 22 21 23 26 26 24 25 21 20 31
13 16 16 21 25 34 40 42 44 48 43 40 38 36 35 29 24 23 22 18 20 21 23 23 21 28 29 31 25 26 28 27
17 16 11 19 24 28 35 42 42 45 41 39 38 38 36 30 25 23 22 18 19 21 21 22 21 23 27 30 27 25 35 35
18 14 19 18 21 23 34 45 42 42 44 38 39 41 35 32 25 23 22 19 17 18 17 19 18 22 26 26 29 30 25 32
20 17 14 20 8 21 36 38 40 45 39 40 41 41 37 32 27 23 21 19 16 15 15 15 17 19 23 29 33 34 29 26
24 18 10 17 14 18 27 33 36 38 38 42 41 40 39 33 29 24 22 19 15 13 15 14 15 17 19 21 24 25 30 33
22 19 11 15 19 19 24 25 31 33 36 38 38 42 39 35 30 26 23 20 16 12 14 15 13 12 11 12 15 17 17 19
22 20 15 17 21 25 24 24 27 27 33 34 41 43 41 38 31 28 25 22 18 14 14 15 14 11 9 8 10 11 14 17
26 28 17 19 23 23 25 24 27 29 26 25 42 45 41 38 32 29 26 24 21 18 16 16 16 13 11 8 8 7 7 9
26 26 16 18 21 22 24 26 26 28 31 38 44 43 43 40 34 29 27 27 25 21 20 19 17 15 14 12 12 10 10 10
19 21 13 17 17 17 21 24 26 33 34 43 42 43 42 38 31 30 28 28 28 26 24 23 22 20 18 18 17 16 15 15
14 14 19 6 19 17 17 21 23 25 29 34 41 44 42 37 31 30 29 28 29 30 29 27 27 23 23 21 21 20 19 20
5 8 5 16 16 17 23 22 24 27 31 32 34 38 35 33 30 29 28 32 41 31 31 32 30 27 25 24 23 21 21 24

GFSFLT1_700_spd_108.txt.gz
Wind_Speed
27 32 32 37 37 32 36 39 41 33 32 30 28 29 26 20 17 16 17 18 18 20 21 21 22 25 25 25 26 25 27 25
24 28 29 36 38 32 37 44 43 43 34 33 30 30 26 18 20 18 18 19 19 19 21 21 23 24 25 25 24 21 28 29
26 25 24 24 37 38 38 44 45 48 35 34 33 33 26 21 22 19 19 21 21 20 22 18 21 25 25 24 27 24 22 27
23 24 25 27 27 36 42 43 49 51 39 36 36 37 29 27 26 21 19 22 23 22 23 15 19 23 25 24 25 21 19 26
30 31 31 29 33 36 35 39 43 49 42 39 39 38 32 27 30 24 21 22 24 22 23 17 18 22 18 22 21 20 13 27
19 22 30 38 35 31 38 36 38 43 42 41 40 41 34 30 32 28 24 23 24 23 24 19 17 21 22 19 20 11 17 21
15 18 18 21 39 43 36 36 42 43 47 42 43 41 39 34 34 32 25 25 24 24 22 22 19 20 22 21 23 21 13 20
22 23 25 25 22 17 36 44 36 42 47 43 43 41 40 40 36 34 27 26 25 23 22 23 20 18 22 23 25 21 21 20
14 13 14 23 29 28 25 38 44 41 45 43 42 42 40 38 36 34 30 26 24 24 22 22 19 18 21 28 23 24 22 22
15 16 16 18 25 29 30 32 40 39 42 44 43 41 41 38 37 34 32 27 23 23 21 20 16 15 20 24 26 25 28 23
20 18 15 15 22 24 29 24 32 38 41 44 42 40 40 38 38 36 32 28 22 22 19 17 14 13 18 24 26 24 25 27
15 15 13 12 17 18 20 21 31 40 42 45 40 39 38 39 39 36 33 26 23 22 18 16 14 11 15 19 23 26 25 27
15 17 18 8 19 20 19 26 32 41 45 41 37 36 36 41 39 37 34 26 24 23 18 16 15 12 13 15 17 21 25 28
17 18 20 10 10 20 23 25 25 31 35 37 38 39 36 41 38 39 34 28 25 24 19 16 15 14 14 14 16 16 16 16
21 21 24 14 12 19 23 21 23 22 25 28 34 36 44 37 37 40 36 30 27 26 21 17 17 17 16 15 15 13 12 14
18 23 25 26 10 17 21 24 19 21 22 19 24 36 34 36 38 43 40 33 28 27 24 20 20 19 18 17 15 15 14 14
19 21 21 23 8 17 18 16 17 18 22 24 28 33 38 37 44 46 40 32 30 29 28 25 25 21 20 20 19 18 18 18
15 16 16 16 10 7 14 17 16 16 20 24 25 30 35 36 42 42 37 37 34 33 33 31 27 25 24 24 23 22 23 21
20 20 19 18 15 16 24 8 18 18 18 22 25 29 35 38 44 44 43 41 37 35 32 29 28 27 28 28 27 28 27 26

GFSFLT1_700_spd_111.txt.gz
Wind_Speed
31 23 30 34 35 36 37 38 39 34 34 33 31 29 24 23 22 19 20 19 18 17 17 20 19 22 24 23 23 24 24 24
23 22 22 26 30 38 38 37 37 33 37 37 33 33 28 24 22 20 20 19 19 18 18 21 20 21 23 23 25 26 26 24
26 23 23 27 28 37 41 42 40 38 37 38 37 34 33 28 24 22 24 20 19 19 20 20 20 21 23 22 25 26 27 27
27 31 27 23 25 23 42 43 40 37 36 39 40 38 35 34 29 25 27 22 21 20 20 21 20 21 22 20 24 26 27 26
31 29 30 33 33 31 31 39 46 39 39 42 47 45 39 36 32 27 28 27 25 21 21 21 21 21 22 20 20 24 25 26
33 34 36 38 36 34 39 33 37 43 45 43 45 49 40 38 33 30 29 30 29 25 21 22 21 22 23 21 20 23 22 19
37 36 38 40 42 40 37 41 32 38 42 43 48 47 38 39 35 32 30 32 32 28 22 21 22 23 23 21 19 21 20 17
25 28 32 37 44 47 45 40 40 41 36 39 42 44 40 37 35 34 32 31 32 29 23 22 22 24 23 21 21 23 23 23
18 21 25 26 33 37 47 57 45 48 48 37 37 39 38 34 36 33 33 32 31 28 25 22 22 24 23 20 22 21 23 19
14 15 17 17 23 30 34 35 39 59 59 47 38 40 39 37 36 35 35 30 33 29 25 23 21 23 20 18 21 20 23 21
15 18 18 19 20 24 38 40 35 33 47 46 39 39 40 36 36 35 36 30 35 30 25 22 21 21 17 16 18 22 24 29
16 18 15 13 18 22 29 34 35 35 34 34 35 38 41 36 35 38 35 31 35 27 25 21 20 19 17 17 17 20 24 27
8 10 11 14 12 20 22 21 25 28 25 33 37 40 39 34 34 37 34 33 34 28 24 20 20 19 17 16 17 17 23 24
10 7 9 10 10 16 23 23 25 29 30 31 35 38 32 33 33 34 32 34 32 30 24 21 20 20 17 17 18 19 22 25
15 17 15 14 14 15 20 25 25 28 30 35 36 35 34 33 33 35 34 36 35 31 24 22 21 21 18 17 19 21 20 20
13 16 20 20 19 12 18 22 22 26 26 28 33 35 35 33 35 36 38 36 34 31 28 24 23 22 20 20 20 20 19 20
14 15 16 16 18 10 12 17 25 23 23 24 23 30 30 29 29 37 37 36 31 30 31 28 26 25 23 21 21 22 22 21
17 18 19 19 19 19 11 11 15 16 17 17 23 28 23 38 34 35 33 32 28 34 38 35 31 29 26 26 26 26 25 24
13 15 17 20 19 18 17 16 13 6 19 19 21 27 27 29 35 37 33 31 28 33 35 41 39 34 30 30 30 29 28 27

GFSFLT1_700_spd_114.txt.gz
Wind_Speed
47 49 50 46 46 44 43 39 38 33 32 32 31 29 27 29 26 24 20 18 17 16 16 16 17 18 20 21 22 23 25 24
35 30 32 36 45 49 49 46 40 40 36 37 34 32 27 24 29 28 23 20 19 17 17 18 17 18 18 20 21 24 26 26
30 31 26 29 25 31 37 42 41 39 34 30 34 32 30 28 27 31 26 23 23 18 18 18 18 19 19 21 21 22 28 28
28 34 33 33 39 40 36 36 37 39 36 35 38 36 37 32 29 32 30 28 27 22 21 19 19 20 20 20 19 21 26 29
36 37 32 32 35 39 40 38 37 35 40 37 35 39 40 33 30 29 33 32 30 28 24 21 20 21 21 21 20 20 26 29
41 41 35 34 38 39 40 39 37 36 40 38 42 39 36 32 31 33 36 38 34 33 28 26 22 21 23 22 22 21 24 27
34 37 36 38 38 38 40 40 40 42 39 39 40 41 36 32 33 36 38 39 36 33 30 28 23 22 23 23 23 24 24 27
35 38 41 43 41 40 40 38 37 43 46 44 40 43 39 33 30 37 35 37 35 32 30 29 24 22 23 25 24 25 24 27
32 34 35 37 39 41 43 44 41 38 38 44 46 44 37 36 29 32 32 35 34 34 31 28 26 23 23 24 25 25 23 27
23 23 24 30 33 39 45 49 52 53 49 46 43 45 50 40 31 33 31 33 35 38 32 30 28 24 23 24 24 23 23 23
21 21 24 25 24 25 28 32 38 47 54 49 47 48 49 43 34 32 34 32 37 35 32 32 29 24 22 23 22 21 24 22
19 20 20 25 24 23 26 32 34 36 39 37 37 33 42 40 38 35 35 33 38 37 34 32 30 25 22 21 20 20 23 23
12 14 16 17 22 23 22 28 30 32 35 36 37 36 39 37 37 36 36 33 34 35 32 31 30 26 22 20 20 20 24 23
2 4 8 11 13 21 21 22 23 23 26 27 28 35 34 34 36 35 36 33 33 32 29 35 31 27 22 20 21 22 24 24
6 7 6 4 7 10 17 19 24 25 22 26 24 24 30 32 33 32 31 29 29 34 29 33 34 27 23 21 21 22 23 23
10 11 13 11 13 13 11 16 20 24 30 25 26 31 33 30 30 28 29 27 29 33 30 32 32 27 24 23 24 23 24 24
17 17 17 17 16 18 15 9 16 17 22 20 28 22 33 35 31 30 33 31 30 33 32 29 28 24 23 26 26 24 24 24
18 20 22 22 22 21 19 17 12 15 22 25 26 24 23 31 30 29 32 30 32 32 34 29 28 34 27 28 30 28 26 26
17 19 19 20 21 21 20 18 18 17 13 12 16 17 20 21 29 31 36 37 38 33 34 29 30 31 35 38 33 32 30 29

GFSFLT1_700_spd_117.txt.gz
Wind_Speed
39 35 33 35 34 35 35 36 34 32 30 28 28 28 26 25 23 25 27 24 21 19 16 15 15 14 14 16 18 20 22 24
34 38 38 35 38 43 45 44 42 41 38 35 32 32 31 28 25 24 26 26 24 22 19 16 15 15 14 15 18 20 22 23
35 38 37 36 39 44 45 46 38 45 48 43 40 34 33 33 31 28 26 24 25 24 24 19 17 16 16 16 17 18 20 22
40 31 34 47 45 46 45 38 34 35 36 38 38 38 35 39 39 33 29 25 26 27 28 23 20 18 18 18 18 18 20 21
38 36 35 46 50 47 42 41 36 37 37 38 36 34 37 38 34 30 29 26 24 26 30 30 25 22 20 20 20 19 20 21
35 36 40 42 43 41 41 42 39 36 37 40 36 35 34 36 34 29 29 29 28 27 28 34 32 29 24 23 22 21 22 23
34 37 41 40 40 41 40 40 38 37 38 38 39 40 38 36 37 39 33 31 29 30 32 35 37 34 29 25 25 24 23 24
36 40 44 43 39 37 38 38 37 37 38 39 41 38 36 41 35 39 35 31 29 28 29 33 37 34 32 28 27 26 25 26
32 35 38 41 40 38 37 37 36 38 38 38 40 39 40 39 37 34 35 36 30 27 28 32 34 32 34 31 29 28 26 27
30 31 32 33 35 36 37 39 40 42 39 38 40 42 40 40 40 38 39 37 32 27 29 32 36 35 34 33 30 28 27 27
24 29 30 32 34 37 39 41 44 45 48 47 47 45 42 41 41 39 40 37 33 31 32 34 37 38 36 36 30 29 27 25
17 20 21 25 28 29 30 32 34 36 39 41 42 41 43 43 44 44 43 39 37 33 33 35 39 35 36 36 31 29 26 24
7 12 15 19 22 26 29 30 30 29 30 32 31 27 32 31 34 36 39 40 40 37 35 34 39 37 36 36 32 29 26 24
3 3 7 12 17 21 24 27 30 27 24 22 24 21 26 32 35 35 35 37 38 38 35 34 34 37 36 36 31 29 27 25
2 6 6 6 9 16 18 20 25 23 21 22 23 22 20 20 26 31 31 33 35 34 34 32 29 34 36 36 32 30 28 25
17 15 12 8 5 8 10 12 16 18 19 25 24 17 20 20 21 24 27 28 31 31 33 33 31 34 39 37 33 30 29 25
20 21 20 18 17 15 15 15 9 12 16 16 25 30 30 28 25 29 30 29 29 33 36 41 39 34 39 37 32 29 27 26
18 20 22 21 22 26 23 20 20 18 11 11 18 24 23 30 22 27 32 35 39 39 38 37 33 34 34 34 28 24 24 26
16 18 19 19 19 19 21 24 24 21 19 17 11 8 14 22 24 25 26 35 40 38 35 33 38 36 30 33 29 24 25 24

GFSFLT1_700_spd_120.txt.gz
Wind_Speed
48 39 32 33 35 41 42 37 33 31 30 28 27 26 23 22 20 20 20 22 22 22 21 18 15 12 12 12 15 17 19 21
31 40 35 30 33 36 37 40 35 33 33 32 31 29 29 28 24 23 23 23 23 24 23 22 19 15 13 14 15 17 18 20
32 31 38 38 39 38 37 39 38 38 37 36 37 35 34 31 29 28 28 29 25 23 24 25 23 19 17 16 16 16 18 20
38 35 39 40 38 38 41 42 40 42 43 43 45 43 41 38 34 31 32 34 30 23 24 27 28 24 21 19 18 18 18 19
34 34 29 34 39 42 39 39 38 37 37 43 45 40 39 38 39 35 35 35 33 27 22 25 29 29 26 25 22 22 21 20
31 35 37 45 36 51 39 37 42 41 36 41 38 37 34 34 34 37 38 36 31 32 29 27 29 30 30 30 29 26 24 24
33 30 32 34 42 52 51 48 48 41 38 40 36 36 34 34 36 38 38 37 35 35 35 31 28 29 33 34 33 31 27 27
29 30 38 38 37 41 42 37 38 37 37 36 36 35 34 32 31 37 41 41 42 41 33 32 33 33 33 37 35 33 31 30
26 30 33 37 36 35 31 35 31 31 33 34 35 34 35 37 35 35 39 43 36 38 42 32 31 35 35 33 34 34 33 32
23 26 26 27 29 29 30 31 31 32 32 35 36 35 36 35 34 36 35 35 39 36 29 32 29 30 32 34 32 32 34 34
19 21 21 21 25 26 27 26 26 27 30 31 34 37 39 40 38 37 38 34 35 36 37 35 32 31 31 34 35 35 35 35
12 11 14 16 18 21 24 25 29 34 37 38 40 41 42 42 43 40 39 40 37 37 39 38 39 38 35 35 36 37 37 36
12 7 16 16 20 26 29 26 25 28 32 35 35 33 31 31 33 35 40 43 41 40 39 42 43 44 39 36 36 36 37 36
15 13 8 3 7 14 19 22 26 28 29 29 29 22 21 19 23 26 28 33 39 42 46 48 48 45 39 35 35 37 36 37
17 13 11 7 1 7 10 15 19 21 21 22 20 18 20 19 19 26 31 33 35 35 37 41 46 43 39 35 35 37 37 38
25 24 22 17 15 13 13 11 10 10 14 14 16 19 18 17 20 19 22 25 29 31 35 38 38 38 38 35 35 37 39 39
23 22 21 22 24 25 18 15 15 16 12 9 12 15 20 21 20 21 23 20 22 25 31 30 31 36 37 42 38 38 36 39
21 22 22 21 21 22 22 25 27 25 22 19 15 11 16 23 24 27 31 31 33 31 32 30 32 36 38 33 35 37 38 39
18 18 17 19 22 21 21 20 20 21 22 23 17 16 12 9 18 22 19 27 27 28 33 34 39 38 28 29 38 33 37 37